Wetterdaten: Dienstag, 07.10.2014
Datum Zeit Temp. Aussen +5cm Feuchte Auss Luftdruck Regen Sonnenschein Regendauer Solar Windben
07.10.2014 00:00 14,7 C 13,3 C 90 % 1005,2 hPa 0,0 l/m 0 min 0 min 0 W/m 23,0 km/h (4 Bft)
07.10.2014 00:02 14,7 C 13,3 C 90 % 1005,1 hPa 0,0 l/m 0 min 0 min 0 W/m 20,9 km/h (4 Bft)
07.10.2014 00:05 14,6 C 13,3 C 90 % 1005,1 hPa 0,0 l/m 0 min 0 min 0 W/m 23,0 km/h (4 Bft)
07.10.2014 00:06 14,6 C 13,3 C 90 % 1005,1 hPa 0,0 l/m 0 min 0 min 0 W/m 23,0 km/h (4 Bft)
07.10.2014 00:08 14,6 C 13,3 C 90 % 1005,1 hPa 0,0 l/m 0 min 0 min 0 W/m 12,6 km/h (3 Bft)
07.10.2014 00:10 14,6 C 13,3 C 90 % 1005,0 hPa 0,0 l/m 0 min 0 min 0 W/m 14,6 km/h (3 Bft)
07.10.2014 00:12 14,6 C 13,3 C 90 % 1005,1 hPa 0,0 l/m 0 min 0 min 0 W/m 10,5 km/h (2 Bft)
07.10.2014 00:14 14,6 C 13,3 C 90 % 1005,0 hPa 0,0 l/m 0 min 0 min 0 W/m 12,6 km/h (3 Bft)
07.10.2014 00:16 14,6 C 13,3 C 90 % 1005,0 hPa 0,0 l/m 0 min 0 min 0 W/m 12,6 km/h (3 Bft)
07.10.2014 00:18 14,6 C 13,3 C 90 % 1004,9 hPa 0,0 l/m 0 min 0 min 0 W/m 20,9 km/h (4 Bft)
07.10.2014 00:20 14,6 C 13,3 C 90 % 1004,9 hPa 0,0 l/m 0 min 0 min 0 W/m 14,6 km/h (3 Bft)
07.10.2014 00:22 14,6 C 13,3 C 90 % 1004,9 hPa 0,0 l/m 0 min 0 min 0 W/m 18,8 km/h (3 Bft)
07.10.2014 00:24 14,6 C 13,3 C 90 % 1004,8 hPa 0,0 l/m 0 min 0 min 0 W/m 16,7 km/h (3 Bft)
07.10.2014 00:26 14,6 C 13,3 C 90 % 1004,8 hPa 0,0 l/m 0 min 0 min 0 W/m 18,8 km/h (3 Bft)
07.10.2014 00:28 14,6 C 13,3 C 90 % 1004,8 hPa 0,0 l/m 0 min 0 min 0 W/m 16,7 km/h (3 Bft)
07.10.2014 00:30 14,5 C 13,3 C 90 % 1004,8 hPa 0,0 l/m 0 min 0 min 0 W/m 14,6 km/h (3 Bft)
07.10.2014 00:32 14,5 C 13,3 C 90 % 1004,8 hPa 0,0 l/m 0 min 0 min 0 W/m 16,7 km/h (3 Bft)
07.10.2014 00:34 14,5 C 13,3 C 90 % 1004,8 hPa 0,0 l/m 0 min 0 min 0 W/m 12,6 km/h (3 Bft)
07.10.2014 00:36 14,5 C 13,3 C 90 % 1004,7 hPa 0,0 l/m 0 min 0 min 0 W/m 14,6 km/h (3 Bft)
07.10.2014 00:38 14,5 C 13,3 C 90 % 1004,7 hPa 0,0 l/m 0 min 0 min 0 W/m 18,8 km/h (3 Bft)
07.10.2014 00:40 14,5 C 13,3 C 90 % 1004,7 hPa 0,0 l/m 0 min 0 min 0 W/m 16,7 km/h (3 Bft)
07.10.2014 00:42 14,5 C 13,3 C 90 % 1004,7 hPa 0,0 l/m 0 min 0 min 0 W/m 20,9 km/h (4 Bft)
07.10.2014 00:44 14,5 C 13,3 C 90 % 1004,7 hPa 0,0 l/m 0 min 0 min 0 W/m 16,7 km/h (3 Bft)
07.10.2014 00:46 14,5 C 13,3 C 90 % 1004,7 hPa 0,0 l/m 0 min 0 min 0 W/m 16,7 km/h (3 Bft)
07.10.2014 00:48 14,5 C 13,3 C 90 % 1004,7 hPa 0,0 l/m 0 min 0 min 0 W/m 16,7 km/h (3 Bft)
07.10.2014 00:50 14,5 C 13,3 C 90 % 1004,6 hPa 0,0 l/m 0 min 0 min 0 W/m 16,7 km/h (3 Bft)
07.10.2014 00:52 14,5 C 13,3 C 90 % 1004,6 hPa 0,0 l/m 0 min 0 min 0 W/m 14,6 km/h (3 Bft)
07.10.2014 00:54 14,5 C 13,3 C 91 % 1004,6 hPa 0,0 l/m 0 min 0 min 0 W/m 16,7 km/h (3 Bft)
07.10.2014 00:56 14,5 C 13,3 C 91 % 1004,5 hPa 0,0 l/m 0 min 0 min 0 W/m 16,7 km/h (3 Bft)
07.10.2014 00:58 14,5 C 13,3 C 91 % 1004,5 hPa 0,0 l/m 0 min 0 min 0 W/m 16,7 km/h (3 Bft)
07.10.2014 01:00 14,5 C 13,3 C 91 % 1004,5 hPa 0,0 l/m 0 min 2 min 0 W/m 16,7 km/h (3 Bft)
07.10.2014 01:02 14,5 C 12,8 C 91 % 1004,5 hPa 0,0 l/m 0 min 0 min 0 W/m 12,6 km/h (3 Bft)
07.10.2014 01:04 14,5 C 12,8 C 91 % 1004,5 hPa 0,0 l/m 0 min 2 min 0 W/m 10,5 km/h (2 Bft)
07.10.2014 01:06 14,5 C 12,8 C 91 % 1004,4 hPa 0,0 l/m 0 min 2 min 0 W/m 20,9 km/h (4 Bft)
07.10.2014 01:08 14,5 C 12,8 C 91 % 1004,4 hPa 0,0 l/m 0 min 0 min 0 W/m 10,5 km/h (2 Bft)
07.10.2014 01:10 14,5 C 12,8 C 91 % 1004,4 hPa 0,0 l/m 0 min 0 min 0 W/m 23,0 km/h (4 Bft)
07.10.2014 01:12 14,5 C 12,8 C 91 % 1004,3 hPa 0,0 l/m 0 min 2 min 0 W/m 18,8 km/h (3 Bft)
07.10.2014 01:14 14,5 C 12,8 C 91 % 1004,2 hPa 0,0 l/m 0 min 2 min 0 W/m 12,6 km/h (3 Bft)
07.10.2014 01:16 14,5 C 12,8 C 91 % 1004,2 hPa 0,0 l/m 0 min 2 min 0 W/m 18,8 km/h (3 Bft)
07.10.2014 01:18 14,5 C 12,8 C 91 % 1004,2 hPa 0,0 l/m 0 min 2 min 0 W/m 16,7 km/h (3 Bft)
07.10.2014 01:20 14,5 C 12,8 C 91 % 1004,1 hPa 0,0 l/m 0 min 0 min 0 W/m 12,6 km/h (3 Bft)
07.10.2014 01:22 14,5 C 12,8 C 91 % 1004,1 hPa 0,0 l/m 0 min 2 min 0 W/m 14,6 km/h (3 Bft)
07.10.2014 01:24 14,5 C 12,2 C 91 % 1004,0 hPa 0,0 l/m 0 min 2 min 0 W/m 16,7 km/h (3 Bft)
07.10.2014 01:26 14,5 C 12,2 C 91 % 1004,0 hPa 0,0 l/m 0 min 2 min 0 W/m 14,6 km/h (3 Bft)
07.10.2014 01:28 14,5 C 12,2 C 91 % 1004,0 hPa 0,0 l/m 0 min 2 min 0 W/m 10,5 km/h (2 Bft)
07.10.2014 01:30 14,5 C 12,2 C 92 % 1003,9 hPa 0,0 l/m 0 min 2 min 0 W/m 14,6 km/h (3 Bft)
07.10.2014 01:32 14,4 C 12,2 C 92 % 1003,9 hPa 0,0 l/m 0 min 2 min 0 W/m 14,6 km/h (3 Bft)
07.10.2014 01:34 14,4 C 12,2 C 92 % 1003,8 hPa 0,2 l/m 0 min 2 min 0 W/m 18,8 km/h (3 Bft)
07.10.2014 01:36 14,4 C 12,2 C 92 % 1003,7 hPa 0,0 l/m 0 min 2 min 0 W/m 10,5 km/h (2 Bft)
07.10.2014 01:38 14,4 C 12,2 C 92 % 1003,7 hPa 0,0 l/m 0 min 2 min 0 W/m 18,8 km/h (3 Bft)
07.10.2014 01:40 14,4 C 12,2 C 92 % 1003,8 hPa 0,0 l/m 0 min 2 min 0 W/m 20,9 km/h (4 Bft)
07.10.2014 01:42 14,3 C 12,2 C 92 % 1003,7 hPa 0,0 l/m 0 min 2 min 0 W/m 29,3 km/h (5 Bft)
07.10.2014 01:44 14,3 C 12,2 C 92 % 1003,6 hPa 0,0 l/m 0 min 2 min 0 W/m 23,0 km/h (4 Bft)
07.10.2014 01:46 14,3 C 12,2 C 92 % 1003,6 hPa 0,0 l/m 0 min 2 min 0 W/m 20,9 km/h (4 Bft)
07.10.2014 01:48 14,2 C 12,2 C 92 % 1003,6 hPa 0,0 l/m 0 min 2 min 0 W/m 27,2 km/h (4 Bft)
07.10.2014 01:50 14,2 C 12,2 C 92 % 1003,5 hPa 0,2 l/m 0 min 2 min 0 W/m 23,0 km/h (4 Bft)
07.10.2014 01:52 14,2 C 12,2 C 92 % 1003,6 hPa 0,0 l/m 0 min 2 min 0 W/m 31,4 km/h (5 Bft)
07.10.2014 01:54 14,2 C 12,2 C 92 % 1003,5 hPa 0,0 l/m 0 min 2 min 0 W/m 20,9 km/h (4 Bft)
07.10.2014 01:56 14,2 C 12,2 C 92 % 1003,6 hPa 0,0 l/m 0 min 2 min 0 W/m 18,8 km/h (3 Bft)
07.10.2014 01:58 14,2 C 12,2 C 92 % 1003,5 hPa 0,0 l/m 0 min 2 min 0 W/m 16,7 km/h (3 Bft)
07.10.2014 02:00 14,2 C 12,2 C 92 % 1003,5 hPa 0,0 l/m 0 min 2 min 0 W/m 16,7 km/h (3 Bft)
07.10.2014 02:02 14,2 C 12,2 C 92 % 1003,5 hPa 0,0 l/m 0 min 2 min 0 W/m 14,6 km/h (3 Bft)
07.10.2014 02:04 14,2 C 12,2 C 92 % 1003,4 hPa 0,0 l/m 0 min 2 min 0 W/m 23,0 km/h (4 Bft)
07.10.2014 02:06 14,2 C 12,2 C 92 % 1003,2 hPa 0,0 l/m 0 min 2 min 0 W/m 25,1 km/h (4 Bft)
07.10.2014 02:08 14,2 C 12,2 C 93 % 1003,3 hPa 0,0 l/m 0 min 2 min 0 W/m 20,9 km/h (4 Bft)
07.10.2014 02:10 14,1 C 12,2 C 93 % 1003,3 hPa 0,0 l/m 0 min 2 min 0 W/m 20,9 km/h (4 Bft)
07.10.2014 02:12 14,1 C 12,2 C 93 % 1003,2 hPa 0,0 l/m 0 min 2 min 0 W/m 16,7 km/h (3 Bft)
07.10.2014 02:14 14,1 C 12,2 C 93 % 1003,2 hPa 0,2 l/m 0 min 2 min 0 W/m 14,6 km/h (3 Bft)
07.10.2014 02:16 14,1 C 12,2 C 93 % 1003,1 hPa 0,0 l/m 0 min 2 min 0 W/m 14,6 km/h (3 Bft)
07.10.2014 02:18 14,0 C 12,2 C 93 % 1003,2 hPa 0,2 l/m 0 min 2 min 0 W/m 18,8 km/h (3 Bft)
07.10.2014 02:20 14,0 C 12,2 C 93 % 1003,1 hPa 0,0 l/m 0 min 2 min 0 W/m 16,7 km/h (3 Bft)
07.10.2014 02:22 14,0 C 12,2 C 93 % 1003,0 hPa 0,0 l/m 0 min 2 min 0 W/m 16,7 km/h (3 Bft)
07.10.2014 02:24 14,0 C 12,2 C 93 % 1003,0 hPa 0,0 l/m 0 min 2 min 0 W/m 16,7 km/h (3 Bft)
07.10.2014 02:26 14,0 C 12,2 C 93 % 1003,0 hPa 0,2 l/m 0 min 2 min 0 W/m 25,1 km/h (4 Bft)
07.10.2014 02:28 14,0 C 12,2 C 93 % 1003,0 hPa 0,0 l/m 0 min 2 min 0 W/m 25,1 km/h (4 Bft)
07.10.2014 02:30 13,9 C 12,2 C 94 % 1003,0 hPa 0,0 l/m 0 min 2 min 0 W/m 18,8 km/h (3 Bft)
07.10.2014 02:32 13,9 C 12,2 C 94 % 1003,0 hPa 0,2 l/m 0 min 2 min 0 W/m 18,8 km/h (3 Bft)
07.10.2014 02:34 13,9 C 12,2 C 94 % 1002,9 hPa 0,0 l/m 0 min 2 min 0 W/m 16,7 km/h (3 Bft)
07.10.2014 02:36 13,9 C 12,2 C 94 % 1002,9 hPa 0,0 l/m 0 min 2 min 0 W/m 12,6 km/h (3 Bft)
07.10.2014 02:38 13,9 C 12,2 C 94 % 1002,8 hPa 0,0 l/m 0 min 2 min 0 W/m 16,7 km/h (3 Bft)
07.10.2014 02:40 13,9 C 12,2 C 94 % 1002,8 hPa 0,0 l/m 0 min 2 min 0 W/m 18,8 km/h (3 Bft)
07.10.2014 02:42 13,9 C 12,2 C 94 % 1002,8 hPa 0,0 l/m 0 min 2 min 0 W/m 20,9 km/h (4 Bft)
07.10.2014 02:44 13,9 C 12,2 C 94 % 1002,8 hPa 0,0 l/m 0 min 2 min 0 W/m 16,7 km/h (3 Bft)
07.10.2014 02:46 13,8 C 12,2 C 94 % 1002,7 hPa 0,0 l/m 0 min 2 min 0 W/m 20,9 km/h (4 Bft)
07.10.2014 02:48 13,8 C 12,2 C 94 % 1002,7 hPa 0,0 l/m 0 min 2 min 0 W/m 16,7 km/h (3 Bft)
07.10.2014 02:50 13,8 C 12,2 C 94 % 1002,6 hPa 0,2 l/m 0 min 2 min 0 W/m 18,8 km/h (3 Bft)
07.10.2014 02:52 13,8 C 12,2 C 95 % 1002,6 hPa 0,0 l/m 0 min 2 min 0 W/m 23,0 km/h (4 Bft)
07.10.2014 02:54 13,8 C 12,2 C 95 % 1002,6 hPa 0,0 l/m 0 min 2 min 0 W/m 14,6 km/h (3 Bft)
07.10.2014 02:56 13,8 C 12,2 C 95 % 1002,5 hPa 0,0 l/m 0 min 2 min 0 W/m 18,8 km/h (3 Bft)
07.10.2014 02:58 13,8 C 12,2 C 95 % 1002,5 hPa 0,0 l/m 0 min 2 min 0 W/m 14,6 km/h (3 Bft)
07.10.2014 03:00 13,8 C 12,2 C 95 % 1002,5 hPa 0,0 l/m 0 min 2 min 0 W/m 25,1 km/h (4 Bft)
07.10.2014 03:02 13,7 C 12,2 C 95 % 1002,4 hPa 0,2 l/m 0 min 2 min 0 W/m 23,0 km/h (4 Bft)
07.10.2014 03:04 13,7 C 12,2 C 95 % 1002,4 hPa 0,0 l/m 0 min 2 min 0 W/m 14,6 km/h (3 Bft)
07.10.2014 03:06 13,7 C 12,2 C 95 % 1002,4 hPa 0,0 l/m 0 min 2 min 0 W/m 18,8 km/h (3 Bft)
07.10.2014 03:08 13,7 C 12,2 C 95 % 1002,4 hPa 0,0 l/m 0 min 2 min 0 W/m 16,7 km/h (3 Bft)
07.10.2014 03:10 13,6 C 12,2 C 95 % 1002,4 hPa 0,0 l/m 0 min 2 min 0 W/m 12,6 km/h (3 Bft)
07.10.2014 03:12 13,6 C 12,2 C 95 % 1002,4 hPa 0,0 l/m 0 min 2 min 0 W/m 18,8 km/h (3 Bft)
07.10.2014 03:14 13,6 C 12,2 C 95 % 1002,4 hPa 0,2 l/m 0 min 2 min 0 W/m 14,6 km/h (3 Bft)
07.10.2014 03:16 13,6 C 12,2 C 95 % 1002,4 hPa 0,0 l/m 0 min 2 min 0 W/m 16,7 km/h (3 Bft)
07.10.2014 03:18 13,6 C 12,2 C 95 % 1002,3 hPa 0,0 l/m 0 min 2 min 0 W/m 12,6 km/h (3 Bft)
07.10.2014 03:20 13,6 C 11,7 C 95 % 1002,4 hPa 0,0 l/m 0 min 2 min 0 W/m 18,8 km/h (3 Bft)
07.10.2014 03:22 13,5 C 11,7 C 95 % 1002,4 hPa 0,0 l/m 0 min 2 min 0 W/m 27,2 km/h (4 Bft)
07.10.2014 03:24 13,5 C 11,7 C 95 % 1002,3 hPa 0,2 l/m 0 min 2 min 0 W/m 25,1 km/h (4 Bft)
07.10.2014 03:26 13,5 C 11,7 C 96 % 1002,3 hPa 0,0 l/m 0 min 2 min 0 W/m 37,7 km/h (5 Bft)
07.10.2014 03:28 13,4 C 11,7 C 96 % 1002,2 hPa 0,0 l/m 0 min 2 min 0 W/m 18,8 km/h (3 Bft)
07.10.2014 03:30 13,4 C 11,7 C 96 % 1002,3 hPa 0,0 l/m 0 min 2 min 0 W/m 29,3 km/h (5 Bft)
07.10.2014 03:32 13,4 C 11,7 C 96 % 1002,3 hPa 0,2 l/m 0 min 2 min 0 W/m 25,1 km/h (4 Bft)
07.10.2014 03:34 13,4 C 11,7 C 95 % 1002,1 hPa 0,0 l/m 0 min 2 min 0 W/m 27,2 km/h (4 Bft)
07.10.2014 03:36 13,4 C 11,7 C 95 % 1002,2 hPa 0,0 l/m 0 min 2 min 0 W/m 23,0 km/h (4 Bft)
07.10.2014 03:38 13,3 C 11,7 C 95 % 1002,1 hPa 0,0 l/m 0 min 2 min 0 W/m 18,8 km/h (3 Bft)
07.10.2014 03:40 13,3 C 11,7 C 96 % 1002,1 hPa 0,0 l/m 0 min 2 min 0 W/m 33,5 km/h (5 Bft)
07.10.2014 03:42 13,3 C 11,7 C 96 % 1002,2 hPa 0,0 l/m 0 min 2 min 0 W/m 14,6 km/h (3 Bft)
07.10.2014 03:44 13,3 C 11,7 C 96 % 1002,1 hPa 0,0 l/m 0 min 2 min 0 W/m 16,7 km/h (3 Bft)
07.10.2014 03:46 13,3 C 11,7 C 96 % 1002,1 hPa 0,0 l/m 0 min 2 min 0 W/m 27,2 km/h (4 Bft)
07.10.2014 03:48 13,3 C 11,7 C 96 % 1002,1 hPa 0,0 l/m 0 min 0 min 0 W/m 18,8 km/h (3 Bft)
07.10.2014 03:50 13,3 C 11,7 C 96 % 1002,1 hPa 0,0 l/m 0 min 2 min 0 W/m 23,0 km/h (4 Bft)
07.10.2014 03:52 13,3 C 11,7 C 96 % 1002,0 hPa 0,2 l/m 0 min 2 min 0 W/m 35,6 km/h (5 Bft)
07.10.2014 03:54 13,3 C 11,7 C 96 % 1002,0 hPa 0,0 l/m 0 min 2 min 0 W/m 39,7 km/h (6 Bft)
07.10.2014 03:56 13,3 C 11,7 C 96 % 1002,0 hPa 0,0 l/m 0 min 2 min 0 W/m 20,9 km/h (4 Bft)
07.10.2014 03:58 13,3 C 11,7 C 96 % 1002,0 hPa 0,0 l/m 0 min 0 min 0 W/m 25,1 km/h (4 Bft)
07.10.2014 04:00 13,3 C 11,7 C 96 % 1002,0 hPa 0,0 l/m 0 min 2 min 0 W/m 25,1 km/h (4 Bft)
07.10.2014 04:02 13,3 C 11,7 C 96 % 1002,1 hPa 0,0 l/m 0 min 2 min 0 W/m 16,7 km/h (3 Bft)
07.10.2014 04:04 13,3 C 11,7 C 96 % 1002,0 hPa 0,0 l/m 0 min 2 min 0 W/m 20,9 km/h (4 Bft)
07.10.2014 04:06 13,3 C 11,7 C 96 % 1001,9 hPa 0,0 l/m 0 min 2 min 0 W/m 29,3 km/h (5 Bft)
07.10.2014 04:08 13,3 C 11,7 C 96 % 1002,0 hPa 0,0 l/m 0 min 0 min 0 W/m 20,9 km/h (4 Bft)
07.10.2014 04:10 13,3 C 11,7 C 96 % 1002,0 hPa 0,0 l/m 0 min 0 min 0 W/m 23,0 km/h (4 Bft)
07.10.2014 04:12 13,3 C 11,7 C 96 % 1002,0 hPa 0,0 l/m 0 min 2 min 0 W/m 23,0 km/h (4 Bft)
07.10.2014 04:14 13,2 C 11,7 C 96 % 1001,9 hPa 0,0 l/m 0 min 0 min 0 W/m 14,6 km/h (3 Bft)
07.10.2014 04:16 13,2 C 11,7 C 96 % 1001,8 hPa 0,0 l/m 0 min 0 min 0 W/m 29,3 km/h (5 Bft)
07.10.2014 04:18 13,2 C 11,7 C 96 % 1001,9 hPa 0,0 l/m 0 min 0 min 0 W/m 23,0 km/h (4 Bft)
07.10.2014 04:20 13,2 C 11,7 C 96 % 1001,9 hPa 0,0 l/m 0 min 0 min 0 W/m 27,2 km/h (4 Bft)
07.10.2014 04:22 13,2 C 11,7 C 96 % 1001,8 hPa 0,0 l/m 0 min 0 min 0 W/m 33,5 km/h (5 Bft)
07.10.2014 04:24 13,2 C 11,7 C 96 % 1001,8 hPa 0,0 l/m 0 min 0 min 0 W/m 29,3 km/h (5 Bft)
07.10.2014 04:26 13,2 C 11,7 C 96 % 1001,7 hPa 0,0 l/m 0 min 0 min 0 W/m 16,7 km/h (3 Bft)
07.10.2014 04:28 13,2 C 11,7 C 96 % 1001,7 hPa 0,0 l/m 0 min 0 min 0 W/m 18,8 km/h (3 Bft)
07.10.2014 04:30 13,2 C 11,7 C 96 % 1001,7 hPa 0,0 l/m 0 min 0 min 0 W/m 16,7 km/h (3 Bft)
07.10.2014 04:32 13,2 C 11,7 C 96 % 1001,6 hPa 0,0 l/m 0 min 0 min 0 W/m 16,7 km/h (3 Bft)
07.10.2014 04:34 13,2 C 11,7 C 96 % 1001,6 hPa 0,0 l/m 0 min 0 min 0 W/m 18,8 km/h (3 Bft)
07.10.2014 04:36 13,2 C 11,7 C 96 % 1001,6 hPa 0,0 l/m 0 min 0 min 0 W/m 18,8 km/h (3 Bft)
07.10.2014 04:38 13,2 C 11,7 C 96 % 1001,6 hPa 0,0 l/m 0 min 0 min 0 W/m 20,9 km/h (4 Bft)
07.10.2014 04:40 13,2 C 11,7 C 96 % 1001,6 hPa 0,0 l/m 0 min 0 min 0 W/m 23,0 km/h (4 Bft)
07.10.2014 04:42 13,2 C 11,7 C 96 % 1001,6 hPa 0,0 l/m 0 min 0 min 0 W/m 25,1 km/h (4 Bft)
07.10.2014 04:44 13,2 C 11,7 C 96 % 1001,6 hPa 0,0 l/m 0 min 0 min 0 W/m 23,0 km/h (4 Bft)
07.10.2014 04:46 13,2 C 11,7 C 96 % 1001,6 hPa 0,0 l/m 0 min 0 min 0 W/m 16,7 km/h (3 Bft)
07.10.2014 04:48 13,2 C 11,7 C 96 % 1001,6 hPa 0,0 l/m 0 min 0 min 0 W/m 20,9 km/h (4 Bft)
07.10.2014 04:50 13,2 C 11,7 C 96 % 1001,6 hPa 0,0 l/m 0 min 0 min 0 W/m 23,0 km/h (4 Bft)
07.10.2014 04:52 13,2 C 11,7 C 97 % 1001,5 hPa 0,0 l/m 0 min 0 min 0 W/m 16,7 km/h (3 Bft)
07.10.2014 04:54 13,3 C 11,7 C 97 % 1001,6 hPa 0,0 l/m 0 min 0 min 0 W/m 23,0 km/h (4 Bft)
07.10.2014 04:56 13,3 C 11,7 C 97 % 1001,5 hPa 0,0 l/m 0 min 0 min 0 W/m 23,0 km/h (4 Bft)
07.10.2014 04:58 13,3 C 11,7 C 97 % 1001,5 hPa 0,0 l/m 0 min 0 min 0 W/m 12,6 km/h (3 Bft)
07.10.2014 05:00 13,3 C 11,7 C 97 % 1001,6 hPa 0,0 l/m 0 min 0 min 0 W/m 16,7 km/h (3 Bft)
07.10.2014 05:02 13,3 C 11,7 C 97 % 1001,6 hPa 0,0 l/m 0 min 0 min 0 W/m 16,7 km/h (3 Bft)
07.10.2014 05:04 13,3 C 11,7 C 97 % 1001,6 hPa 0,0 l/m 0 min 0 min 0 W/m 25,1 km/h (4 Bft)
07.10.2014 05:06 13,3 C 11,7 C 97 % 1001,5 hPa 0,0 l/m 0 min 0 min 0 W/m 16,7 km/h (3 Bft)
07.10.2014 05:08 13,3 C 11,7 C 97 % 1001,4 hPa 0,0 l/m 0 min 0 min 0 W/m 18,8 km/h (3 Bft)
07.10.2014 05:10 13,3 C 11,7 C 97 % 1001,4 hPa 0,0 l/m 0 min 2 min 0 W/m 16,7 km/h (3 Bft)
07.10.2014 05:12 13,3 C 11,7 C 97 % 1001,4 hPa 0,2 l/m 0 min 2 min 0 W/m 18,8 km/h (3 Bft)
07.10.2014 05:14 13,3 C 11,7 C 97 % 1001,4 hPa 0,0 l/m 0 min 2 min 0 W/m 20,9 km/h (4 Bft)
07.10.2014 05:16 13,3 C 11,7 C 97 % 1001,3 hPa 0,0 l/m 0 min 2 min 0 W/m 14,6 km/h (3 Bft)
07.10.2014 05:18 13,3 C 11,7 C 97 % 1001,1 hPa 0,0 l/m 0 min 2 min 0 W/m 16,7 km/h (3 Bft)
07.10.2014 05:20 13,3 C 11,7 C 97 % 1000,9 hPa 0,0 l/m 0 min 0 min 0 W/m 23,0 km/h (4 Bft)
07.10.2014 05:22 13,3 C 11,7 C 97 % 1001,0 hPa 0,0 l/m 0 min 0 min 0 W/m 16,7 km/h (3 Bft)
07.10.2014 05:24 13,3 C 11,7 C 97 % 1001,0 hPa 0,0 l/m 0 min 0 min 0 W/m 18,8 km/h (3 Bft)
07.10.2014 05:26 13,3 C 11,7 C 97 % 1000,9 hPa 0,0 l/m 0 min 0 min 0 W/m 14,6 km/h (3 Bft)
07.10.2014 05:28 13,3 C 11,7 C 97 % 1000,8 hPa 0,0 l/m 0 min 0 min 0 W/m 12,6 km/h (3 Bft)
07.10.2014 05:30 13,3 C 11,7 C 97 % 1000,8 hPa 0,0 l/m 0 min 0 min 0 W/m 20,9 km/h (4 Bft)
07.10.2014 05:32 13,3 C 11,7 C 97 % 1000,9 hPa 0,0 l/m 0 min 0 min 0 W/m 25,1 km/h (4 Bft)
07.10.2014 05:34 13,2 C 11,7 C 97 % 1000,8 hPa 0,0 l/m 0 min 0 min 0 W/m 18,8 km/h (3 Bft)
07.10.2014 05:36 13,2 C 11,7 C 97 % 1000,8 hPa 0,0 l/m 0 min 0 min 0 W/m 16,7 km/h (3 Bft)
07.10.2014 05:38 13,2 C 11,7 C 97 % 1000,8 hPa 0,0 l/m 0 min 0 min 0 W/m 16,7 km/h (3 Bft)
07.10.2014 05:40 13,2 C 11,7 C 97 % 1000,7 hPa 0,0 l/m 0 min 0 min 0 W/m 18,8 km/h (3 Bft)
07.10.2014 05:42 13,2 C 11,7 C 97 % 1000,7 hPa 0,0 l/m 0 min 0 min 0 W/m 16,7 km/h (3 Bft)
07.10.2014 05:44 13,2 C 11,7 C 97 % 1000,7 hPa 0,0 l/m 0 min 0 min 0 W/m 16,7 km/h (3 Bft)
07.10.2014 05:46 13,2 C 11,7 C 97 % 1000,7 hPa 0,0 l/m 0 min 0 min 0 W/m 14,6 km/h (3 Bft)
07.10.2014 05:48 13,2 C 11,7 C 97 % 1000,7 hPa 0,0 l/m 0 min 0 min 0 W/m 23,0 km/h (4 Bft)
07.10.2014 05:50 13,2 C 11,7 C 97 % 1000,7 hPa 0,0 l/m 0 min 0 min 0 W/m 16,7 km/h (3 Bft)
07.10.2014 05:52 13,2 C 11,7 C 97 % 1000,7 hPa 0,0 l/m 0 min 0 min 0 W/m 16,7 km/h (3 Bft)
07.10.2014 05:54 13,2 C 11,7 C 97 % 1000,7 hPa 0,0 l/m 0 min 0 min 0 W/m 20,9 km/h (4 Bft)
07.10.2014 05:56 13,2 C 11,7 C 97 % 1000,7 hPa 0,0 l/m 0 min 0 min 0 W/m 20,9 km/h (4 Bft)
07.10.2014 05:58 13,2 C 11,7 C 97 % 1000,6 hPa 0,0 l/m 0 min 0 min 0 W/m 18,8 km/h (3 Bft)
07.10.2014 06:00 13,2 C 11,7 C 97 % 1000,5 hPa 0,0 l/m 0 min 0 min 0 W/m 16,7 km/h (3 Bft)
07.10.2014 06:02 13,2 C 11,7 C 96 % 1000,1 hPa 0,0 l/m 0 min 0 min 0 W/m 16,7 km/h (3 Bft)
07.10.2014 06:05 13,2 C 11,7 C 96 % 1000,1 hPa 0,0 l/m 0 min 0 min 0 W/m 12,6 km/h (3 Bft)
07.10.2014 06:08 13,2 C 11,7 C 96 % 1000,4 hPa 0,0 l/m 0 min 0 min 0 W/m 14,6 km/h (3 Bft)
07.10.2014 06:10 13,2 C 11,7 C 96 % 1000,5 hPa 0,0 l/m 0 min 0 min 0 W/m 14,6 km/h (3 Bft)
07.10.2014 06:12 13,1 C 11,7 C 96 % 1000,6 hPa 0,0 l/m 0 min 0 min 0 W/m 18,8 km/h (3 Bft)
07.10.2014 06:14 13,1 C 11,7 C 96 % 1000,5 hPa 0,0 l/m 0 min 0 min 0 W/m 16,7 km/h (3 Bft)
07.10.2014 06:16 13,1 C 11,7 C 96 % 1000,6 hPa 0,0 l/m 0 min 0 min 0 W/m 20,9 km/h (4 Bft)
07.10.2014 06:18 13,1 C 11,7 C 96 % 1000,6 hPa 0,0 l/m 0 min 0 min 0 W/m 18,8 km/h (3 Bft)
07.10.2014 06:20 13,1 C 11,7 C 96 % 1000,6 hPa 0,0 l/m 0 min 0 min 0 W/m 14,6 km/h (3 Bft)
07.10.2014 06:22 13,1 C 11,1 C 96 % 1000,7 hPa 0,0 l/m 0 min 0 min 0 W/m 18,8 km/h (3 Bft)
07.10.2014 06:24 13,1 C 11,7 C 96 % 1000,7 hPa 0,0 l/m 0 min 0 min 0 W/m 16,7 km/h (3 Bft)
07.10.2014 06:26 13,1 C 11,7 C 96 % 1000,8 hPa 0,0 l/m 0 min 0 min 0 W/m 18,8 km/h (3 Bft)
07.10.2014 06:28 13,0 C 11,1 C 96 % 1000,8 hPa 0,0 l/m 0 min 0 min 0 W/m 12,6 km/h (3 Bft)
07.10.2014 06:30 13,0 C 11,1 C 96 % 1000,8 hPa 0,0 l/m 0 min 0 min 0 W/m 14,6 km/h (3 Bft)
07.10.2014 06:32 13,0 C 11,1 C 96 % 1000,8 hPa 0,0 l/m 0 min 0 min 0 W/m 16,7 km/h (3 Bft)
07.10.2014 06:34 13,0 C 11,7 C 96 % 1000,7 hPa 0,0 l/m 0 min 0 min 0 W/m 16,7 km/h (3 Bft)
07.10.2014 06:36 13,0 C 11,7 C 96 % 1000,7 hPa 0,0 l/m 0 min 0 min 0 W/m 14,6 km/h (3 Bft)
07.10.2014 06:38 13,0 C 11,7 C 96 % 1000,7 hPa 0,0 l/m 0 min 0 min 0 W/m 16,7 km/h (3 Bft)
07.10.2014 06:40 13,0 C 11,7 C 96 % 1000,6 hPa 0,0 l/m 0 min 0 min 0 W/m 12,6 km/h (3 Bft)
07.10.2014 06:42 12,9 C 11,7 C 96 % 1000,6 hPa 0,0 l/m 0 min 0 min 0 W/m 14,6 km/h (3 Bft)
07.10.2014 06:44 12,9 C 11,7 C 96 % 1000,6 hPa 0,0 l/m 0 min 0 min 0 W/m 14,6 km/h (3 Bft)
07.10.2014 06:46 12,9 C 11,7 C 96 % 1000,6 hPa 0,0 l/m 0 min 0 min 0 W/m 12,6 km/h (3 Bft)
07.10.2014 06:48 12,9 C 11,7 C 96 % 1000,6 hPa 0,0 l/m 0 min 0 min 0 W/m 12,6 km/h (3 Bft)
07.10.2014 06:50 12,9 C 11,7 C 97 % 1000,6 hPa 0,0 l/m 0 min 0 min 0 W/m 18,8 km/h (3 Bft)
07.10.2014 06:52 12,9 C 11,7 C 97 % 1000,6 hPa 0,0 l/m 0 min 0 min 0 W/m 14,6 km/h (3 Bft)
07.10.2014 06:54 12,9 C 11,7 C 97 % 1000,6 hPa 0,0 l/m 0 min 0 min 0 W/m 12,6 km/h (3 Bft)
07.10.2014 06:56 12,9 C 11,7 C 97 % 1000,4 hPa 0,0 l/m 0 min 0 min 0 W/m 14,6 km/h (3 Bft)
07.10.2014 06:58 12,9 C 11,7 C 97 % 1000,4 hPa 0,0 l/m 0 min 0 min 0 W/m 10,5 km/h (2 Bft)
07.10.2014 07:00 12,9 C 11,7 C 97 % 1000,5 hPa 0,0 l/m 0 min 0 min 0 W/m 10,5 km/h (2 Bft)
07.10.2014 07:02 12,9 C 11,7 C 97 % 1000,4 hPa 0,0 l/m 0 min 0 min 0 W/m 12,6 km/h (3 Bft)
07.10.2014 07:04 12,9 C 11,7 C 97 % 1000,4 hPa 0,0 l/m 0 min 0 min 0 W/m 14,6 km/h (3 Bft)
07.10.2014 07:06 12,9 C 11,7 C 97 % 1000,3 hPa 0,0 l/m 0 min 0 min 0 W/m 12,6 km/h (3 Bft)
07.10.2014 07:08 12,9 C 11,7 C 97 % 1000,2 hPa 0,0 l/m 0 min 0 min 0 W/m 12,6 km/h (3 Bft)
07.10.2014 07:10 12,9 C 11,7 C 97 % 1000,3 hPa 0,0 l/m 0 min 0 min 0 W/m 10,5 km/h (2 Bft)
07.10.2014 07:12 12,9 C 11,7 C 97 % 1000,4 hPa 0,0 l/m 0 min 0 min 0 W/m 12,6 km/h (3 Bft)
07.10.2014 07:14 12,9 C 11,7 C 97 % 1000,3 hPa 0,0 l/m 0 min 0 min 0 W/m 10,5 km/h (2 Bft)
07.10.2014 07:16 12,9 C 11,1 C 97 % 1000,3 hPa 0,0 l/m 0 min 0 min 0 W/m 10,5 km/h (2 Bft)
07.10.2014 07:18 12,9 C 11,1 C 97 % 1000,2 hPa 0,0 l/m 0 min 0 min 0 W/m 12,6 km/h (3 Bft)
07.10.2014 07:20 12,8 C 11,1 C 97 % 1000,2 hPa 0,0 l/m 0 min 0 min 0 W/m 10,5 km/h (2 Bft)
07.10.2014 07:22 12,8 C 11,7 C 97 % 1000,3 hPa 0,0 l/m 0 min 0 min 0 W/m 8,4 km/h (2 Bft)
07.10.2014 07:24 12,8 C 11,7 C 97 % 1000,5 hPa 0,0 l/m 0 min 0 min 0 W/m 10,5 km/h (2 Bft)
07.10.2014 07:26 12,8 C 11,7 C 97 % 1000,4 hPa 0,0 l/m 0 min 0 min 0 W/m 8,4 km/h (2 Bft)
07.10.2014 07:28 12,8 C 11,7 C 97 % 1000,3 hPa 0,0 l/m 0 min 0 min 0 W/m 8,4 km/h (2 Bft)
07.10.2014 07:30 12,8 C 11,7 C 97 % 1000,3 hPa 0,0 l/m 0 min 0 min 0 W/m 8,4 km/h (2 Bft)
07.10.2014 07:32 12,8 C 11,7 C 97 % 1000,3 hPa 0,0 l/m 0 min 0 min 0 W/m 6,3 km/h (2 Bft)
07.10.2014 07:34 12,8 C 11,7 C 97 % 1000,5 hPa 0,0 l/m 0 min 0 min 0 W/m 6,3 km/h (2 Bft)
07.10.2014 07:36 12,8 C 11,7 C 97 % 1000,5 hPa 0,0 l/m 0 min 0 min 0 W/m 8,4 km/h (2 Bft)
07.10.2014 07:38 12,8 C 11,7 C 97 % 1000,6 hPa 0,0 l/m 0 min 0 min 0 W/m 6,3 km/h (2 Bft)
07.10.2014 07:40 12,8 C 11,7 C 97 % 1000,6 hPa 0,0 l/m 0 min 0 min 0 W/m 6,3 km/h (2 Bft)
07.10.2014 07:42 12,8 C 11,7 C 97 % 1000,6 hPa 0,0 l/m 0 min 0 min 0 W/m 6,3 km/h (2 Bft)
07.10.2014 07:44 12,8 C 11,7 C 97 % 1000,7 hPa 0,0 l/m 0 min 0 min 0 W/m 8,4 km/h (2 Bft)
07.10.2014 07:46 12,8 C 11,7 C 97 % 1000,6 hPa 0,0 l/m 0 min 0 min 0 W/m 6,3 km/h (2 Bft)
07.10.2014 07:48 12,8 C 11,7 C 97 % 1000,6 hPa 0,0 l/m 0 min 0 min 0 W/m 6,3 km/h (2 Bft)
07.10.2014 07:50 12,8 C 11,7 C 97 % 1000,3 hPa 0,0 l/m 0 min 0 min 0 W/m 6,3 km/h (2 Bft)
07.10.2014 07:52 12,8 C 11,7 C 97 % 1000,2 hPa 0,0 l/m 0 min 0 min 5 W/m 8,4 km/h (2 Bft)
07.10.2014 07:54 12,8 C 11,7 C 97 % 1000,1 hPa 0,0 l/m 0 min 0 min 5 W/m 8,4 km/h (2 Bft)
07.10.2014 07:56 12,8 C 11,7 C 97 % 999,9 hPa 0,0 l/m 0 min 0 min 5 W/m 10,5 km/h (2 Bft)
07.10.2014 07:58 12,8 C 11,7 C 97 % 999,9 hPa 0,0 l/m 0 min 0 min 5 W/m 10,5 km/h (2 Bft)
07.10.2014 08:00 12,9 C 11,7 C 97 % 999,9 hPa 0,0 l/m 0 min 0 min 6 W/m 12,6 km/h (3 Bft)
07.10.2014 08:02 12,9 C 11,7 C 97 % 999,8 hPa 0,0 l/m 0 min 0 min 9 W/m 14,6 km/h (3 Bft)
07.10.2014 08:04 12,9 C 11,7 C 97 % 999,8 hPa 0,0 l/m 0 min 0 min 9 W/m 14,6 km/h (3 Bft)
07.10.2014 08:06 12,9 C 11,7 C 97 % 999,8 hPa 0,0 l/m 0 min 0 min 10 W/m 10,5 km/h (2 Bft)
07.10.2014 08:08 12,9 C 11,7 C 97 % 999,9 hPa 0,0 l/m 0 min 0 min 9 W/m 12,6 km/h (3 Bft)
07.10.2014 08:10 12,9 C 11,7 C 97 % 999,9 hPa 0,0 l/m 0 min 0 min 6 W/m 10,5 km/h (2 Bft)
07.10.2014 08:12 12,9 C 11,7 C 97 % 999,9 hPa 0,0 l/m 0 min 0 min 5 W/m 12,6 km/h (3 Bft)
07.10.2014 08:14 12,9 C 11,7 C 97 % 999,7 hPa 0,0 l/m 0 min 0 min 7 W/m 14,6 km/h (3 Bft)
07.10.2014 08:16 12,9 C 11,7 C 97 % 999,5 hPa 0,0 l/m 0 min 2 min 9 W/m 10,5 km/h (2 Bft)
07.10.2014 08:18 12,9 C 11,7 C 97 % 999,5 hPa 0,0 l/m 0 min 2 min 9 W/m 12,6 km/h (3 Bft)
07.10.2014 08:20 13,0 C 11,7 C 97 % 999,4 hPa 0,0 l/m 0 min 2 min 11 W/m 14,6 km/h (3 Bft)
07.10.2014 08:22 13,0 C 11,7 C 97 % 999,1 hPa 0,0 l/m 0 min 2 min 15 W/m 14,6 km/h (3 Bft)
07.10.2014 08:24 13,0 C 11,7 C 97 % 999,1 hPa 0,0 l/m 0 min 2 min 17 W/m 18,8 km/h (3 Bft)
07.10.2014 08:26 13,1 C 11,7 C 97 % 999,3 hPa 0,2 l/m 0 min 2 min 14 W/m 10,5 km/h (2 Bft)
07.10.2014 08:28 13,1 C 11,7 C 97 % 999,4 hPa 0,0 l/m 0 min 2 min 10 W/m 10,5 km/h (2 Bft)
07.10.2014 08:30 13,1 C 11,7 C 97 % 999,6 hPa 0,0 l/m 0 min 2 min 6 W/m 10,5 km/h (2 Bft)
07.10.2014 08:32 13,1 C 11,7 C 97 % 999,6 hPa 0,2 l/m 0 min 2 min 7 W/m 6,3 km/h (2 Bft)
07.10.2014 08:34 13,1 C 11,7 C 97 % 999,5 hPa 0,2 l/m 0 min 2 min 9 W/m 6,3 km/h (2 Bft)
07.10.2014 08:36 13,1 C 11,7 C 97 % 999,5 hPa 0,0 l/m 0 min 2 min 9 W/m 4,2 km/h (1 Bft)
07.10.2014 08:38 13,1 C 11,7 C 97 % 999,5 hPa 0,6 l/m 0 min 2 min 6 W/m 8,4 km/h (2 Bft)
07.10.2014 08:40 13,1 C 11,7 C 97 % 999,6 hPa 0,8 l/m 0 min 2 min 5 W/m 8,4 km/h (2 Bft)
07.10.2014 08:42 13,1 C 11,7 C 97 % 999,5 hPa 0,4 l/m 0 min 2 min 1 W/m 8,4 km/h (2 Bft)
07.10.2014 08:44 13,1 C 11,7 C 97 % 999,6 hPa 0,4 l/m 0 min 2 min 0 W/m 10,5 km/h (2 Bft)
07.10.2014 08:46 13,1 C 11,7 C 97 % 999,7 hPa 0,4 l/m 0 min 2 min 0 W/m 10,5 km/h (2 Bft)
07.10.2014 08:48 13,1 C 11,7 C 97 % 999,8 hPa 1,0 l/m 0 min 2 min 0 W/m 10,5 km/h (2 Bft)
07.10.2014 08:50 13,2 C 11,7 C 97 % 999,9 hPa 0,6 l/m 0 min 2 min 0 W/m 10,5 km/h (2 Bft)
07.10.2014 08:52 13,2 C 12,2 C 97 % 1000,0 hPa 0,6 l/m 0 min 2 min 0 W/m 14,6 km/h (3 Bft)
07.10.2014 08:54 13,2 C 12,2 C 97 % 1000,0 hPa 0,8 l/m 0 min 2 min 0 W/m 16,7 km/h (3 Bft)
07.10.2014 08:56 13,2 C 12,2 C 97 % 999,8 hPa 1,2 l/m 0 min 2 min 0 W/m 14,6 km/h (3 Bft)
07.10.2014 08:58 13,2 C 12,2 C 97 % 999,7 hPa 0,4 l/m 0 min 2 min 0 W/m 8,4 km/h (2 Bft)
07.10.2014 09:00 13,3 C 12,2 C 97 % 999,8 hPa 0,0 l/m 0 min 2 min 0 W/m 14,6 km/h (3 Bft)
07.10.2014 09:02 13,3 C 12,2 C 97 % 999,8 hPa 0,4 l/m 0 min 2 min 0 W/m 10,5 km/h (2 Bft)
07.10.2014 09:04 13,3 C 12,2 C 97 % 999,8 hPa 0,2 l/m 0 min 2 min 0 W/m 10,5 km/h (2 Bft)
07.10.2014 09:06 13,3 C 12,2 C 97 % 1000,1 hPa 0,2 l/m 0 min 2 min 0 W/m 10,5 km/h (2 Bft)
07.10.2014 09:08 13,3 C 12,2 C 97 % 1000,0 hPa 0,8 l/m 0 min 2 min 0 W/m 10,5 km/h (2 Bft)
07.10.2014 09:10 13,3 C 12,2 C 97 % 999,7 hPa 0,8 l/m 0 min 2 min 5 W/m 14,6 km/h (3 Bft)
07.10.2014 09:12 13,3 C 12,2 C 97 % 999,5 hPa 0,2 l/m 0 min 2 min 9 W/m 18,8 km/h (3 Bft)
07.10.2014 09:14 13,3 C 12,2 C 98 % 999,5 hPa 0,2 l/m 0 min 2 min 12 W/m 8,4 km/h (2 Bft)
07.10.2014 09:16 13,3 C 12,2 C 98 % 999,4 hPa 0,0 l/m 0 min 2 min 22 W/m 8,4 km/h (2 Bft)
07.10.2014 09:18 13,3 C 12,2 C 98 % 999,1 hPa 0,0 l/m 0 min 2 min 42 W/m 18,8 km/h (3 Bft)
07.10.2014 09:20 13,4 C 12,2 C 98 % 999,4 hPa 0,0 l/m 0 min 2 min 47 W/m 16,7 km/h (3 Bft)
07.10.2014 09:22 13,4 C 12,2 C 98 % 999,4 hPa 0,0 l/m 0 min 2 min 47 W/m 16,7 km/h (3 Bft)
07.10.2014 09:24 13,4 C 12,2 C 98 % 999,3 hPa 0,0 l/m 0 min 0 min 54 W/m 16,7 km/h (3 Bft)
07.10.2014 09:26 13,4 C 12,2 C 98 % 999,3 hPa 0,0 l/m 0 min 0 min 47 W/m 10,5 km/h (2 Bft)
07.10.2014 09:28 13,4 C 12,2 C 98 % 999,3 hPa 0,0 l/m 0 min 0 min 45 W/m 10,5 km/h (2 Bft)
07.10.2014 09:30 13,4 C 12,2 C 98 % 999,4 hPa 0,0 l/m 0 min 0 min 32 W/m 14,6 km/h (3 Bft)
07.10.2014 09:32 13,4 C 12,2 C 98 % 999,5 hPa 0,0 l/m 0 min 0 min 25 W/m 14,6 km/h (3 Bft)
07.10.2014 09:34 13,4 C 12,2 C 98 % 999,6 hPa 0,0 l/m 0 min 2 min 24 W/m 12,6 km/h (3 Bft)
07.10.2014 09:36 13,4 C 12,2 C 98 % 999,6 hPa 0,0 l/m 0 min 0 min 27 W/m 16,7 km/h (3 Bft)
07.10.2014 09:38 13,5 C 12,2 C 98 % 999,4 hPa 0,2 l/m 0 min 0 min 37 W/m 16,7 km/h (3 Bft)
07.10.2014 09:40 13,5 C 12,2 C 98 % 999,6 hPa 0,0 l/m 0 min 0 min 44 W/m 18,8 km/h (3 Bft)
07.10.2014 09:42 13,5 C 12,2 C 98 % 999,5 hPa 0,0 l/m 0 min 0 min 47 W/m 12,6 km/h (3 Bft)
07.10.2014 09:44 13,5 C 12,2 C 98 % 999,2 hPa 0,0 l/m 0 min 2 min 50 W/m 14,6 km/h (3 Bft)
07.10.2014 09:46 13,6 C 12,2 C 98 % 999,3 hPa 0,0 l/m 0 min 2 min 48 W/m 18,8 km/h (3 Bft)
07.10.2014 09:48 13,6 C 12,2 C 98 % 999,4 hPa 0,0 l/m 0 min 2 min 40 W/m 20,9 km/h (4 Bft)
07.10.2014 09:50 13,6 C 12,2 C 98 % 999,6 hPa 0,0 l/m 0 min 2 min 23 W/m 16,7 km/h (3 Bft)
07.10.2014 09:52 13,6 C 12,2 C 98 % 999,4 hPa 0,0 l/m 0 min 0 min 25 W/m 16,7 km/h (3 Bft)
07.10.2014 09:54 13,6 C 12,2 C 98 % 999,5 hPa 0,0 l/m 0 min 0 min 28 W/m 14,6 km/h (3 Bft)
07.10.2014 09:56 13,6 C 12,2 C 98 % 999,5 hPa 0,0 l/m 0 min 0 min 22 W/m 12,6 km/h (3 Bft)
07.10.2014 09:58 13,6 C 12,2 C 98 % 999,4 hPa 0,0 l/m 0 min 2 min 21 W/m 12,6 km/h (3 Bft)
07.10.2014 10:00 13,6 C 12,2 C 98 % 999,5 hPa 0,0 l/m 0 min 2 min 21 W/m 16,7 km/h (3 Bft)
07.10.2014 10:02 13,6 C 12,2 C 98 % 999,5 hPa 0,2 l/m 0 min 2 min 25 W/m 14,6 km/h (3 Bft)
07.10.2014 10:04 13,6 C 12,2 C 98 % 999,5 hPa 0,0 l/m 0 min 2 min 32 W/m 12,6 km/h (3 Bft)
07.10.2014 10:06 13,6 C 12,2 C 98 % 999,5 hPa 0,0 l/m 0 min 0 min 42 W/m 10,5 km/h (2 Bft)
07.10.2014 10:08 13,6 C 12,2 C 98 % 999,5 hPa 0,0 l/m 0 min 0 min 57 W/m 18,8 km/h (3 Bft)
07.10.2014 10:10 13,6 C 12,2 C 98 % 999,4 hPa 0,0 l/m 0 min 0 min 68 W/m 18,8 km/h (3 Bft)
07.10.2014 10:12 13,7 C 12,2 C 98 % 999,5 hPa 0,0 l/m 0 min 0 min 67 W/m 20,9 km/h (4 Bft)
07.10.2014 10:14 13,6 C 12,2 C 98 % 999,6 hPa 0,0 l/m 0 min 0 min 71 W/m 14,6 km/h (3 Bft)
07.10.2014 10:16 13,6 C 12,2 C 98 % 999,6 hPa 0,0 l/m 0 min 0 min 78 W/m 18,8 km/h (3 Bft)
07.10.2014 10:18 13,6 C 12,2 C 98 % 999,6 hPa 0,0 l/m 0 min 0 min 82 W/m 16,7 km/h (3 Bft)
07.10.2014 10:20 13,6 C 12,2 C 98 % 999,6 hPa 0,0 l/m 0 min 0 min 83 W/m 12,6 km/h (3 Bft)
07.10.2014 10:22 13,6 C 12,2 C 98 % 999,6 hPa 0,0 l/m 0 min 0 min 76 W/m 14,6 km/h (3 Bft)
07.10.2014 10:24 13,6 C 12,2 C 98 % 999,5 hPa 0,0 l/m 0 min 0 min 71 W/m 16,7 km/h (3 Bft)
07.10.2014 10:26 13,6 C 12,2 C 98 % 999,6 hPa 0,0 l/m 0 min 0 min 73 W/m 14,6 km/h (3 Bft)
07.10.2014 10:28 13,6 C 12,2 C 98 % 999,6 hPa 0,0 l/m 0 min 0 min 100 W/m 12,6 km/h (3 Bft)
07.10.2014 10:30 13,5 C 12,2 C 98 % 999,6 hPa 0,0 l/m 0 min 0 min 127 W/m 12,6 km/h (3 Bft)
07.10.2014 10:32 13,5 C 12,2 C 98 % 999,5 hPa 0,0 l/m 0 min 0 min 105 W/m 12,6 km/h (3 Bft)
07.10.2014 10:34 13,5 C 12,2 C 98 % 999,5 hPa 0,0 l/m 0 min 0 min 131 W/m 12,6 km/h (3 Bft)
07.10.2014 10:36 13,6 C 12,2 C 98 % 999,5 hPa 0,0 l/m 2 min 0 min 155 W/m 8,4 km/h (2 Bft)
07.10.2014 10:38 13,6 C 12,2 C 98 % 999,5 hPa 0,0 l/m 0 min 0 min 139 W/m 12,6 km/h (3 Bft)
07.10.2014 10:40 13,6 C 12,2 C 98 % 999,6 hPa 0,0 l/m 0 min 0 min 111 W/m 14,6 km/h (3 Bft)
07.10.2014 10:42 13,6 C 12,2 C 98 % 999,6 hPa 0,0 l/m 0 min 0 min 97 W/m 10,5 km/h (2 Bft)
07.10.2014 10:44 13,6 C 12,2 C 98 % 999,7 hPa 0,0 l/m 0 min 0 min 96 W/m 10,5 km/h (2 Bft)
07.10.2014 10:46 13,6 C 12,2 C 98 % 999,7 hPa 0,0 l/m 0 min 0 min 125 W/m 10,5 km/h (2 Bft)
07.10.2014 10:48 13,7 C 12,8 C 98 % 999,8 hPa 0,0 l/m 2 min 0 min 369 W/m 14,6 km/h (3 Bft)
07.10.2014 10:50 13,7 C 12,8 C 98 % 999,8 hPa 0,0 l/m 2 min 0 min 361 W/m 14,6 km/h (3 Bft)
07.10.2014 10:52 13,8 C 13,3 C 98 % 999,8 hPa 0,0 l/m 2 min 0 min 485 W/m 12,6 km/h (3 Bft)
07.10.2014 10:54 14,0 C 13,3 C 98 % 999,8 hPa 0,0 l/m 2 min 0 min 513 W/m 16,7 km/h (3 Bft)
07.10.2014 10:56 14,2 C 13,3 C 98 % 999,9 hPa 0,0 l/m 2 min 0 min 397 W/m 16,7 km/h (3 Bft)
07.10.2014 10:58 14,2 C 13,9 C 99 % 999,9 hPa 0,0 l/m 2 min 0 min 458 W/m 18,8 km/h (3 Bft)
07.10.2014 11:00 14,4 C 13,9 C 98 % 1000,0 hPa 0,0 l/m 2 min 0 min 420 W/m 16,7 km/h (3 Bft)
07.10.2014 11:02 14,6 C 13,9 C 98 % 999,8 hPa 0,0 l/m 2 min 0 min 417 W/m 25,1 km/h (4 Bft)
07.10.2014 11:04 14,7 C 13,9 C 99 % 999,8 hPa 0,0 l/m 2 min 0 min 417 W/m 18,8 km/h (3 Bft)
07.10.2014 11:06 14,7 C 13,9 C 99 % 999,8 hPa 0,0 l/m 2 min 0 min 187 W/m 18,8 km/h (3 Bft)
07.10.2014 11:08 14,7 C 13,9 C 99 % 999,6 hPa 0,0 l/m 2 min 0 min 172 W/m 10,5 km/h (2 Bft)
07.10.2014 11:10 14,7 C 13,9 C 99 % 999,6 hPa 0,0 l/m 2 min 0 min 185 W/m 29,3 km/h (5 Bft)
07.10.2014 11:12 14,7 C 13,9 C 99 % 999,6 hPa 0,0 l/m 2 min 0 min 202 W/m 23,0 km/h (4 Bft)
07.10.2014 11:14 14,6 C 13,9 C 99 % 999,6 hPa 0,0 l/m 2 min 0 min 207 W/m 29,3 km/h (5 Bft)
07.10.2014 11:16 14,6 C 13,9 C 99 % 999,4 hPa 0,0 l/m 2 min 0 min 524 W/m 16,7 km/h (3 Bft)
07.10.2014 11:18 14,6 C 13,9 C 99 % 999,4 hPa 0,0 l/m 2 min 0 min 597 W/m 29,3 km/h (5 Bft)
07.10.2014 11:20 14,7 C 13,9 C 99 % 999,4 hPa 0,0 l/m 2 min 0 min 332 W/m 25,1 km/h (4 Bft)
07.10.2014 11:22 14,6 C 13,9 C 99 % 999,3 hPa 0,0 l/m 2 min 0 min 233 W/m 35,6 km/h (5 Bft)
07.10.2014 11:24 14,7 C 13,9 C 99 % 999,2 hPa 0,0 l/m 2 min 0 min 508 W/m 25,1 km/h (4 Bft)
07.10.2014 11:26 14,7 C 13,9 C 99 % 999,2 hPa 0,0 l/m 2 min 0 min 465 W/m 20,9 km/h (4 Bft)
07.10.2014 11:28 14,7 C 13,9 C 98 % 999,2 hPa 0,0 l/m 2 min 0 min 456 W/m 23,0 km/h (4 Bft)
07.10.2014 11:30 14,8 C 13,9 C 98 % 999,3 hPa 0,0 l/m 2 min 0 min 453 W/m 29,3 km/h (5 Bft)
07.10.2014 11:32 14,8 C 13,9 C 98 % 999,2 hPa 0,0 l/m 2 min 0 min 454 W/m 31,4 km/h (5 Bft)
07.10.2014 11:34 14,8 C 13,9 C 98 % 999,2 hPa 0,0 l/m 2 min 0 min 456 W/m 25,1 km/h (4 Bft)
07.10.2014 11:36 14,9 C 13,9 C 98 % 999,2 hPa 0,0 l/m 2 min 0 min 459 W/m 29,3 km/h (5 Bft)
07.10.2014 11:38 14,9 C 13,9 C 98 % 999,0 hPa 0,0 l/m 2 min 0 min 462 W/m 18,8 km/h (3 Bft)
07.10.2014 11:40 15,1 C 13,9 C 98 % 998,9 hPa 0,0 l/m 2 min 0 min 464 W/m 31,4 km/h (5 Bft)
07.10.2014 11:42 15,1 C 13,9 C 98 % 998,8 hPa 0,0 l/m 2 min 0 min 468 W/m 37,7 km/h (5 Bft)
07.10.2014 11:44 15,2 C 13,9 C 98 % 999,0 hPa 0,0 l/m 2 min 0 min 470 W/m 23,0 km/h (4 Bft)
07.10.2014 11:46 15,2 C 13,9 C 98 % 999,0 hPa 0,0 l/m 2 min 0 min 474 W/m 31,4 km/h (5 Bft)
07.10.2014 11:48 15,3 C 13,9 C 97 % 999,1 hPa 0,0 l/m 2 min 0 min 478 W/m 16,7 km/h (3 Bft)
07.10.2014 11:50 15,4 C 13,9 C 97 % 999,0 hPa 0,0 l/m 2 min 0 min 481 W/m 20,9 km/h (4 Bft)
07.10.2014 11:52 15,6 C 14,4 C 97 % 999,2 hPa 0,0 l/m 2 min 0 min 481 W/m 29,3 km/h (5 Bft)
07.10.2014 11:54 15,7 C 14,4 C 96 % 999,4 hPa 0,0 l/m 2 min 0 min 487 W/m 25,1 km/h (4 Bft)
07.10.2014 11:56 15,8 C 14,4 C 95 % 999,4 hPa 0,0 l/m 2 min 0 min 488 W/m 23,0 km/h (4 Bft)
07.10.2014 11:58 15,9 C 14,4 C 94 % 999,4 hPa 0,0 l/m 2 min 0 min 494 W/m 16,7 km/h (3 Bft)
07.10.2014 12:00 16,1 C 14,4 C 93 % 999,5 hPa 0,0 l/m 2 min 0 min 503 W/m 12,6 km/h (3 Bft)
07.10.2014 12:02 16,2 C 14,4 C 92 % 999,5 hPa 0,0 l/m 2 min 0 min 513 W/m 31,4 km/h (5 Bft)
07.10.2014 12:05 16,3 C 14,4 C 91 % 999,5 hPa 0,0 l/m 2 min 0 min 585 W/m 23,0 km/h (4 Bft)
07.10.2014 12:08 16,5 C 15,0 C 89 % 999,6 hPa 0,0 l/m 2 min 0 min 538 W/m 27,2 km/h (4 Bft)
07.10.2014 12:10 16,7 C 15,0 C 88 % 999,6 hPa 0,0 l/m 2 min 0 min 622 W/m 46,0 km/h (6 Bft)
07.10.2014 12:12 16,7 C 15,0 C 87 % 999,7 hPa 0,0 l/m 2 min 2 min 547 W/m 43,9 km/h (6 Bft)
07.10.2014 12:14 16,8 C 15,0 C 84 % 999,8 hPa 0,0 l/m 2 min 0 min 287 W/m 27,2 km/h (4 Bft)
07.10.2014 12:16 16,9 C 15,0 C 84 % 999,7 hPa 0,0 l/m 2 min 0 min 289 W/m 23,0 km/h (4 Bft)
07.10.2014 12:18 16,9 C 15,0 C 83 % 999,7 hPa 0,0 l/m 2 min 0 min 302 W/m 31,4 km/h (5 Bft)
07.10.2014 12:20 17,0 C 15,0 C 81 % 999,8 hPa 0,0 l/m 2 min 0 min 429 W/m 29,3 km/h (5 Bft)
07.10.2014 12:22 17,1 C 15,0 C 81 % 999,8 hPa 0,0 l/m 2 min 0 min 679 W/m 35,6 km/h (5 Bft)
07.10.2014 12:24 17,1 C 15,0 C 80 % 999,7 hPa 0,0 l/m 2 min 0 min 703 W/m 48,1 km/h (6 Bft)
07.10.2014 12:26 17,2 C 15,6 C 80 % 999,8 hPa 0,0 l/m 2 min 0 min 307 W/m 33,5 km/h (5 Bft)
07.10.2014 12:28 17,2 C 15,6 C 79 % 999,7 hPa 0,0 l/m 2 min 0 min 460 W/m 41,8 km/h (6 Bft)
07.10.2014 12:30 17,2 C 15,0 C 78 % 999,8 hPa 0,0 l/m 2 min 0 min 642 W/m 33,5 km/h (5 Bft)
07.10.2014 12:32 17,2 C 15,0 C 78 % 999,8 hPa 0,0 l/m 2 min 0 min 617 W/m 39,7 km/h (6 Bft)
07.10.2014 12:34 17,3 C 15,0 C 77 % 999,9 hPa 0,0 l/m 2 min 0 min 554 W/m 48,1 km/h (6 Bft)
07.10.2014 12:36 17,3 C 15,6 C 77 % 999,9 hPa 0,0 l/m 2 min 0 min 552 W/m 35,6 km/h (5 Bft)
07.10.2014 12:38 17,4 C 15,6 C 77 % 999,9 hPa 0,0 l/m 2 min 0 min 511 W/m 39,7 km/h (6 Bft)
07.10.2014 12:40 17,4 C 15,6 C 77 % 999,9 hPa 0,0 l/m 2 min 0 min 485 W/m 33,5 km/h (5 Bft)
07.10.2014 12:42 17,4 C 15,0 C 76 % 1000,0 hPa 0,0 l/m 2 min 0 min 448 W/m 41,8 km/h (6 Bft)
07.10.2014 12:44 17,4 C 15,0 C 76 % 1000,0 hPa 0,0 l/m 2 min 0 min 336 W/m 39,7 km/h (6 Bft)
07.10.2014 12:46 17,4 C 15,0 C 75 % 999,9 hPa 0,0 l/m 2 min 0 min 235 W/m 46,0 km/h (6 Bft)
07.10.2014 12:48 17,3 C 15,0 C 75 % 1000,0 hPa 0,0 l/m 0 min 0 min 193 W/m 46,0 km/h (6 Bft)
07.10.2014 12:50 17,3 C 15,0 C 75 % 1000,0 hPa 0,0 l/m 2 min 0 min 314 W/m 37,7 km/h (5 Bft)
07.10.2014 12:52 17,3 C 15,0 C 76 % 1000,0 hPa 0,0 l/m 2 min 0 min 284 W/m 27,2 km/h (4 Bft)
07.10.2014 12:54 17,2 C 15,0 C 75 % 999,9 hPa 0,0 l/m 2 min 0 min 262 W/m 35,6 km/h (5 Bft)
07.10.2014 12:56 17,2 C 15,0 C 76 % 1000,2 hPa 0,0 l/m 2 min 0 min 259 W/m 43,9 km/h (6 Bft)
07.10.2014 12:58 17,1 C 15,0 C 75 % 1000,0 hPa 0,0 l/m 0 min 0 min 182 W/m 39,7 km/h (6 Bft)
07.10.2014 13:00 17,0 C 14,4 C 75 % 1000,1 hPa 0,0 l/m 0 min 0 min 136 W/m 35,6 km/h (5 Bft)
07.10.2014 13:02 16,9 C 14,4 C 76 % 1000,1 hPa 0,0 l/m 0 min 0 min 147 W/m 18,8 km/h (3 Bft)
07.10.2014 13:04 16,9 C 14,4 C 76 % 1000,0 hPa 0,0 l/m 0 min 0 min 179 W/m 29,3 km/h (5 Bft)
07.10.2014 13:06 16,9 C 15,0 C 76 % 1000,2 hPa 0,0 l/m 2 min 0 min 256 W/m 18,8 km/h (3 Bft)
07.10.2014 13:08 16,9 C 15,0 C 77 % 1000,1 hPa 0,0 l/m 2 min 0 min 353 W/m 37,7 km/h (5 Bft)
07.10.2014 13:10 16,9 C 15,0 C 76 % 1000,3 hPa 0,0 l/m 2 min 0 min 264 W/m 46,0 km/h (6 Bft)
07.10.2014 13:12 16,9 C 15,0 C 76 % 1000,2 hPa 0,0 l/m 2 min 0 min 327 W/m 25,1 km/h (4 Bft)
07.10.2014 13:14 16,9 C 15,0 C 76 % 1000,2 hPa 0,0 l/m 2 min 0 min 314 W/m 25,1 km/h (4 Bft)
07.10.2014 13:16 17,0 C 15,0 C 76 % 1000,1 hPa 0,0 l/m 2 min 0 min 364 W/m 43,9 km/h (6 Bft)
07.10.2014 13:18 17,0 C 15,0 C 76 % 1000,0 hPa 0,0 l/m 2 min 0 min 335 W/m 35,6 km/h (5 Bft)
07.10.2014 13:20 17,0 C 15,0 C 76 % 1000,1 hPa 0,0 l/m 2 min 0 min 270 W/m 43,9 km/h (6 Bft)
07.10.2014 13:22 17,0 C 15,0 C 74 % 1000,0 hPa 0,0 l/m 2 min 0 min 282 W/m 41,8 km/h (6 Bft)
07.10.2014 13:24 17,0 C 15,0 C 73 % 1000,0 hPa 0,0 l/m 2 min 0 min 282 W/m 48,1 km/h (6 Bft)
07.10.2014 13:26 17,1 C 15,0 C 73 % 1000,0 hPa 0,0 l/m 2 min 0 min 402 W/m 37,7 km/h (5 Bft)
07.10.2014 13:28 17,1 C 15,0 C 73 % 1000,2 hPa 0,0 l/m 2 min 0 min 382 W/m 41,8 km/h (6 Bft)
07.10.2014 13:30 17,1 C 15,0 C 73 % 1000,3 hPa 0,0 l/m 2 min 0 min 397 W/m 37,7 km/h (5 Bft)
07.10.2014 13:32 17,2 C 15,6 C 73 % 1000,2 hPa 0,0 l/m 2 min 0 min 323 W/m 33,5 km/h (5 Bft)
07.10.2014 13:34 17,2 C 15,0 C 74 % 1000,3 hPa 0,0 l/m 2 min 0 min 266 W/m 33,5 km/h (5 Bft)
07.10.2014 13:36 17,2 C 15,6 C 74 % 1000,2 hPa 0,0 l/m 2 min 0 min 269 W/m 35,6 km/h (5 Bft)
07.10.2014 13:38 17,2 C 15,6 C 74 % 1000,1 hPa 0,0 l/m 2 min 0 min 366 W/m 43,9 km/h (6 Bft)
07.10.2014 13:40 17,2 C 15,6 C 73 % 1000,0 hPa 0,0 l/m 2 min 0 min 390 W/m 39,7 km/h (6 Bft)
07.10.2014 13:42 17,3 C 15,6 C 73 % 1000,2 hPa 0,0 l/m 2 min 0 min 287 W/m 37,7 km/h (5 Bft)
07.10.2014 13:44 17,3 C 15,6 C 73 % 1000,3 hPa 0,0 l/m 2 min 0 min 266 W/m 35,6 km/h (5 Bft)
07.10.2014 13:46 17,2 C 15,0 C 72 % 1000,2 hPa 0,0 l/m 2 min 0 min 235 W/m 39,7 km/h (6 Bft)
07.10.2014 13:48 17,2 C 15,0 C 72 % 1000,1 hPa 0,0 l/m 0 min 0 min 180 W/m 46,0 km/h (6 Bft)
07.10.2014 13:50 17,2 C 15,0 C 72 % 1000,2 hPa 0,0 l/m 2 min 0 min 234 W/m 39,7 km/h (6 Bft)
07.10.2014 13:52 17,2 C 15,0 C 72 % 1000,2 hPa 0,0 l/m 2 min 0 min 220 W/m 39,7 km/h (6 Bft)
07.10.2014 13:54 17,2 C 15,0 C 72 % 1000,4 hPa 0,0 l/m 2 min 0 min 291 W/m 37,7 km/h (5 Bft)
07.10.2014 13:56 17,2 C 15,0 C 72 % 1000,4 hPa 0,0 l/m 2 min 0 min 226 W/m 46,0 km/h (6 Bft)
07.10.2014 13:58 17,2 C 15,0 C 72 % 1000,6 hPa 0,0 l/m 0 min 0 min 181 W/m 25,1 km/h (4 Bft)
07.10.2014 14:00 17,1 C 15,0 C 72 % 1000,6 hPa 0,0 l/m 0 min 0 min 141 W/m 25,1 km/h (4 Bft)
07.10.2014 14:02 17,1 C 15,0 C 72 % 1000,5 hPa 0,0 l/m 0 min 0 min 169 W/m 39,7 km/h (6 Bft)
07.10.2014 14:04 17,0 C 15,0 C 71 % 1000,3 hPa 0,0 l/m 2 min 0 min 206 W/m 50,2 km/h (7 Bft)
07.10.2014 14:06 17,0 C 15,0 C 71 % 1000,2 hPa 0,0 l/m 2 min 0 min 204 W/m 43,9 km/h (6 Bft)
07.10.2014 14:08 16,9 C 15,0 C 71 % 1000,3 hPa 0,0 l/m 0 min 0 min 186 W/m 29,3 km/h (5 Bft)
07.10.2014 14:10 16,9 C 15,0 C 71 % 1000,3 hPa 0,0 l/m 0 min 0 min 168 W/m 35,6 km/h (5 Bft)
07.10.2014 14:12 16,9 C 15,0 C 72 % 1000,5 hPa 0,0 l/m 0 min 0 min 134 W/m 37,7 km/h (5 Bft)
07.10.2014 14:14 16,9 C 15,0 C 72 % 1000,6 hPa 0,0 l/m 0 min 0 min 129 W/m 37,7 km/h (5 Bft)
07.10.2014 14:16 16,8 C 15,0 C 72 % 1000,6 hPa 0,0 l/m 2 min 0 min 204 W/m 37,7 km/h (5 Bft)
07.10.2014 14:18 16,8 C 15,0 C 72 % 1000,6 hPa 0,0 l/m 2 min 0 min 281 W/m 37,7 km/h (5 Bft)
07.10.2014 14:20 16,8 C 15,6 C 72 % 1000,6 hPa 0,0 l/m 2 min 0 min 343 W/m 33,5 km/h (5 Bft)
07.10.2014 14:22 16,9 C 15,6 C 73 % 1000,7 hPa 0,0 l/m 2 min 0 min 242 W/m 41,8 km/h (6 Bft)
07.10.2014 14:24 16,9 C 15,0 C 72 % 1000,7 hPa 0,0 l/m 2 min 0 min 223 W/m 29,3 km/h (5 Bft)
07.10.2014 14:26 16,9 C 15,6 C 72 % 1000,6 hPa 0,0 l/m 2 min 0 min 288 W/m 29,3 km/h (5 Bft)
07.10.2014 14:28 16,9 C 15,6 C 72 % 1000,6 hPa 0,0 l/m 2 min 0 min 327 W/m 54,4 km/h (7 Bft)
07.10.2014 14:30 16,9 C 15,6 C 71 % 1000,8 hPa 0,0 l/m 2 min 0 min 251 W/m 37,7 km/h (5 Bft)
07.10.2014 14:32 17,0 C 15,6 C 71 % 1000,7 hPa 0,0 l/m 0 min 0 min 187 W/m 33,5 km/h (5 Bft)
07.10.2014 14:34 17,0 C 15,6 C 70 % 1000,6 hPa 0,0 l/m 2 min 0 min 209 W/m 52,3 km/h (7 Bft)
07.10.2014 14:36 17,0 C 15,6 C 71 % 1000,8 hPa 0,0 l/m 2 min 0 min 194 W/m 25,1 km/h (4 Bft)
07.10.2014 14:38 17,1 C 15,6 C 71 % 1000,8 hPa 0,0 l/m 0 min 0 min 173 W/m 25,1 km/h (4 Bft)
07.10.2014 14:40 17,1 C 15,0 C 70 % 1000,7 hPa 0,0 l/m 2 min 0 min 207 W/m 64,4 km/h (8 Bft)
07.10.2014 14:42 17,0 C 15,0 C 68 % 1000,7 hPa 0,0 l/m 2 min 0 min 229 W/m 56,5 km/h (7 Bft)
07.10.2014 14:44 17,0 C 15,0 C 68 % 1000,9 hPa 0,0 l/m 2 min 0 min 229 W/m 31,4 km/h (5 Bft)
07.10.2014 14:46 17,0 C 15,0 C 70 % 1001,0 hPa 0,0 l/m 0 min 0 min 160 W/m 46,0 km/h (6 Bft)
07.10.2014 14:48 16,9 C 15,0 C 69 % 1001,0 hPa 0,0 l/m 0 min 0 min 116 W/m 41,8 km/h (6 Bft)
07.10.2014 14:50 16,9 C 15,0 C 70 % 1001,1 hPa 0,0 l/m 0 min 0 min 129 W/m 33,5 km/h (5 Bft)
07.10.2014 14:52 16,9 C 15,0 C 71 % 1001,1 hPa 0,0 l/m 0 min 0 min 135 W/m 43,9 km/h (6 Bft)
07.10.2014 14:54 16,8 C 15,0 C 72 % 1001,0 hPa 0,0 l/m 0 min 0 min 153 W/m 23,0 km/h (4 Bft)
07.10.2014 14:56 16,8 C 15,0 C 73 % 1001,2 hPa 0,0 l/m 0 min 0 min 169 W/m 25,1 km/h (4 Bft)
07.10.2014 14:58 16,8 C 15,0 C 75 % 1001,2 hPa 0,0 l/m 0 min 0 min 169 W/m 33,5 km/h (5 Bft)
07.10.2014 15:00 16,8 C 15,0 C 74 % 1001,2 hPa 0,0 l/m 2 min 0 min 214 W/m 37,7 km/h (5 Bft)
07.10.2014 15:02 16,7 C 15,0 C 73 % 1001,2 hPa 0,0 l/m 2 min 0 min 196 W/m 37,7 km/h (5 Bft)
07.10.2014 15:04 16,6 C 15,0 C 74 % 1001,3 hPa 0,0 l/m 0 min 0 min 150 W/m 31,4 km/h (5 Bft)
07.10.2014 15:06 16,5 C 14,4 C 74 % 1001,1 hPa 0,0 l/m 0 min 0 min 103 W/m 41,8 km/h (6 Bft)
07.10.2014 15:08 16,4 C 14,4 C 74 % 1001,2 hPa 0,0 l/m 0 min 0 min 84 W/m 37,7 km/h (5 Bft)
07.10.2014 15:10 16,3 C 13,9 C 75 % 1001,3 hPa 0,0 l/m 0 min 2 min 111 W/m 39,7 km/h (6 Bft)
07.10.2014 15:12 16,2 C 12,8 C 76 % 1001,3 hPa 0,0 l/m 0 min 2 min 162 W/m 29,3 km/h (5 Bft)
07.10.2014 15:14 16,1 C 12,2 C 77 % 1001,3 hPa 0,0 l/m 0 min 2 min 162 W/m 23,0 km/h (4 Bft)
07.10.2014 15:16 16,1 C 12,2 C 78 % 1001,5 hPa 0,0 l/m 0 min 0 min 170 W/m 31,4 km/h (5 Bft)
07.10.2014 15:18 15,9 C 12,2 C 78 % 1001,5 hPa 0,0 l/m 0 min 0 min 147 W/m 29,3 km/h (5 Bft)
07.10.2014 15:20 15,8 C 12,2 C 79 % 1001,5 hPa 0,0 l/m 0 min 0 min 132 W/m 31,4 km/h (5 Bft)
07.10.2014 15:22 15,7 C 12,2 C 79 % 1001,6 hPa 0,0 l/m 0 min 0 min 121 W/m 31,4 km/h (5 Bft)
07.10.2014 15:24 15,6 C 12,2 C 79 % 1001,5 hPa 0,0 l/m 0 min 0 min 157 W/m 31,4 km/h (5 Bft)
07.10.2014 15:26 15,6 C 12,8 C 80 % 1001,5 hPa 0,0 l/m 2 min 0 min 178 W/m 33,5 km/h (5 Bft)
07.10.2014 15:28 15,5 C 12,8 C 80 % 1001,6 hPa 0,0 l/m 0 min 0 min 128 W/m 25,1 km/h (4 Bft)
07.10.2014 15:30 15,4 C 12,8 C 80 % 1001,5 hPa 0,0 l/m 0 min 0 min 102 W/m 31,4 km/h (5 Bft)
07.10.2014 15:32 15,4 C 12,8 C 80 % 1001,5 hPa 0,0 l/m 0 min 0 min 112 W/m 33,5 km/h (5 Bft)
07.10.2014 15:34 15,3 C 12,8 C 79 % 1001,7 hPa 0,0 l/m 0 min 0 min 119 W/m 37,7 km/h (5 Bft)
07.10.2014 15:36 15,3 C 12,8 C 80 % 1001,7 hPa 0,0 l/m 0 min 0 min 132 W/m 23,0 km/h (4 Bft)
07.10.2014 15:38 15,3 C 13,3 C 80 % 1001,7 hPa 0,0 l/m 0 min 0 min 153 W/m 35,6 km/h (5 Bft)
07.10.2014 15:40 15,3 C 13,3 C 80 % 1001,8 hPa 0,0 l/m 2 min 0 min 176 W/m 23,0 km/h (4 Bft)
07.10.2014 15:42 15,3 C 13,3 C 80 % 1001,7 hPa 0,0 l/m 2 min 0 min 250 W/m 37,7 km/h (5 Bft)
07.10.2014 15:44 15,3 C 13,9 C 80 % 1001,7 hPa 0,0 l/m 2 min 0 min 262 W/m 18,8 km/h (3 Bft)
07.10.2014 15:46 15,4 C 13,9 C 80 % 1001,7 hPa 0,0 l/m 2 min 0 min 291 W/m 20,9 km/h (4 Bft)
07.10.2014 15:48 15,4 C 14,4 C 80 % 1001,6 hPa 0,0 l/m 2 min 0 min 432 W/m 31,4 km/h (5 Bft)
07.10.2014 15:50 15,6 C 14,4 C 78 % 1001,5 hPa 0,0 l/m 2 min 0 min 457 W/m 33,5 km/h (5 Bft)
07.10.2014 15:52 15,7 C 14,4 C 78 % 1001,6 hPa 0,0 l/m 2 min 0 min 491 W/m 37,7 km/h (5 Bft)
07.10.2014 15:54 15,8 C 14,4 C 76 % 1001,5 hPa 0,0 l/m 2 min 0 min 513 W/m 39,7 km/h (6 Bft)
07.10.2014 15:56 15,9 C 14,4 C 76 % 1001,5 hPa 0,0 l/m 2 min 0 min 482 W/m 23,0 km/h (4 Bft)
07.10.2014 15:58 16,0 C 14,4 C 75 % 1001,6 hPa 0,0 l/m 2 min 0 min 490 W/m 35,6 km/h (5 Bft)
07.10.2014 16:00 16,1 C 14,4 C 74 % 1001,5 hPa 0,0 l/m 2 min 0 min 482 W/m 37,7 km/h (5 Bft)
07.10.2014 16:02 16,2 C 14,4 C 73 % 1001,6 hPa 0,0 l/m 2 min 0 min 421 W/m 37,7 km/h (5 Bft)
07.10.2014 16:04 16,3 C 15,0 C 73 % 1001,5 hPa 0,0 l/m 2 min 0 min 366 W/m 27,2 km/h (4 Bft)
07.10.2014 16:06 16,3 C 14,4 C 73 % 1001,6 hPa 0,0 l/m 2 min 0 min 220 W/m 31,4 km/h (5 Bft)
07.10.2014 16:08 16,4 C 14,4 C 73 % 1001,6 hPa 0,0 l/m 0 min 0 min 117 W/m 23,0 km/h (4 Bft)
07.10.2014 16:10 16,3 C 14,4 C 73 % 1001,7 hPa 0,0 l/m 0 min 0 min 111 W/m 33,5 km/h (5 Bft)
07.10.2014 16:12 16,3 C 14,4 C 71 % 1001,7 hPa 0,0 l/m 0 min 0 min 107 W/m 41,8 km/h (6 Bft)
07.10.2014 16:14 16,3 C 14,4 C 71 % 1001,7 hPa 0,0 l/m 0 min 0 min 117 W/m 25,1 km/h (4 Bft)
07.10.2014 16:16 16,2 C 14,4 C 71 % 1001,9 hPa 0,0 l/m 0 min 0 min 140 W/m 29,3 km/h (5 Bft)
07.10.2014 16:18 16,2 C 14,4 C 71 % 1001,9 hPa 0,0 l/m 0 min 0 min 137 W/m 37,7 km/h (5 Bft)
07.10.2014 16:20 16,2 C 14,4 C 71 % 1001,9 hPa 0,0 l/m 2 min 0 min 140 W/m 35,6 km/h (5 Bft)
07.10.2014 16:22 16,1 C 14,4 C 71 % 1001,9 hPa 0,0 l/m 2 min 0 min 173 W/m 35,6 km/h (5 Bft)
07.10.2014 16:24 16,1 C 14,4 C 71 % 1001,8 hPa 0,0 l/m 2 min 0 min 157 W/m 29,3 km/h (5 Bft)
07.10.2014 16:26 16,1 C 14,4 C 71 % 1001,9 hPa 0,0 l/m 2 min 0 min 168 W/m 35,6 km/h (5 Bft)
07.10.2014 16:28 16,1 C 13,9 C 72 % 1001,9 hPa 0,0 l/m 2 min 0 min 144 W/m 25,1 km/h (4 Bft)
07.10.2014 16:30 16,0 C 13,9 C 72 % 1002,0 hPa 0,0 l/m 2 min 0 min 144 W/m 35,6 km/h (5 Bft)
07.10.2014 16:32 16,0 C 14,4 C 73 % 1001,9 hPa 0,0 l/m 2 min 0 min 157 W/m 23,0 km/h (4 Bft)
07.10.2014 16:34 15,9 C 14,4 C 73 % 1001,9 hPa 0,0 l/m 2 min 0 min 173 W/m 16,7 km/h (3 Bft)
07.10.2014 16:36 15,9 C 14,4 C 73 % 1001,9 hPa 0,0 l/m 2 min 0 min 145 W/m 20,9 km/h (4 Bft)
07.10.2014 16:38 15,9 C 13,9 C 73 % 1001,7 hPa 0,0 l/m 2 min 0 min 135 W/m 33,5 km/h (5 Bft)
07.10.2014 16:40 15,9 C 13,9 C 73 % 1001,8 hPa 0,0 l/m 2 min 0 min 145 W/m 25,1 km/h (4 Bft)
07.10.2014 16:42 15,9 C 14,4 C 74 % 1001,8 hPa 0,0 l/m 2 min 0 min 152 W/m 25,1 km/h (4 Bft)
07.10.2014 16:44 15,8 C 13,9 C 74 % 1001,9 hPa 0,0 l/m 2 min 0 min 128 W/m 29,3 km/h (5 Bft)
07.10.2014 16:46 15,8 C 13,9 C 74 % 1001,8 hPa 0,0 l/m 2 min 0 min 121 W/m 25,1 km/h (4 Bft)
07.10.2014 16:48 15,8 C 13,9 C 74 % 1001,8 hPa 0,0 l/m 2 min 0 min 139 W/m 27,2 km/h (4 Bft)
07.10.2014 16:50 15,8 C 13,9 C 74 % 1001,8 hPa 0,0 l/m 0 min 0 min 112 W/m 29,3 km/h (5 Bft)
07.10.2014 16:52 15,8 C 13,9 C 74 % 1002,0 hPa 0,0 l/m 0 min 0 min 99 W/m 20,9 km/h (4 Bft)
07.10.2014 16:54 15,7 C 13,9 C 74 % 1001,9 hPa 0,0 l/m 0 min 0 min 83 W/m 35,6 km/h (5 Bft)
07.10.2014 16:56 15,7 C 13,9 C 74 % 1002,0 hPa 0,0 l/m 0 min 0 min 74 W/m 25,1 km/h (4 Bft)
07.10.2014 16:58 15,7 C 13,9 C 74 % 1002,1 hPa 0,0 l/m 0 min 0 min 66 W/m 27,2 km/h (4 Bft)
07.10.2014 17:00 15,7 C 13,9 C 74 % 1002,1 hPa 0,0 l/m 0 min 0 min 77 W/m 25,1 km/h (4 Bft)
07.10.2014 17:02 15,6 C 13,9 C 74 % 1002,1 hPa 0,0 l/m 0 min 0 min 94 W/m 20,9 km/h (4 Bft)
07.10.2014 17:04 15,6 C 13,9 C 74 % 1002,0 hPa 0,0 l/m 2 min 0 min 131 W/m 25,1 km/h (4 Bft)
07.10.2014 17:06 15,6 C 13,9 C 74 % 1001,9 hPa 0,0 l/m 2 min 0 min 113 W/m 25,1 km/h (4 Bft)
07.10.2014 17:08 15,6 C 13,9 C 74 % 1002,0 hPa 0,0 l/m 0 min 0 min 87 W/m 31,4 km/h (5 Bft)
07.10.2014 17:10 15,6 C 13,9 C 74 % 1002,0 hPa 0,0 l/m 0 min 0 min 95 W/m 20,9 km/h (4 Bft)
07.10.2014 17:12 15,5 C 13,3 C 75 % 1001,9 hPa 0,0 l/m 2 min 2 min 117 W/m 18,8 km/h (3 Bft)
07.10.2014 17:14 15,5 C 13,3 C 75 % 1001,8 hPa 0,0 l/m 2 min 2 min 102 W/m 16,7 km/h (3 Bft)
07.10.2014 17:16 15,5 C 13,3 C 75 % 1001,7 hPa 0,0 l/m 0 min 0 min 79 W/m 20,9 km/h (4 Bft)
07.10.2014 17:18 15,5 C 12,8 C 76 % 1001,8 hPa 0,0 l/m 0 min 0 min 65 W/m 18,8 km/h (3 Bft)
07.10.2014 17:20 15,4 C 12,8 C 76 % 1001,9 hPa 0,0 l/m 0 min 0 min 63 W/m 14,6 km/h (3 Bft)
07.10.2014 17:22 15,4 C 12,8 C 76 % 1002,0 hPa 0,0 l/m 0 min 0 min 66 W/m 16,7 km/h (3 Bft)
07.10.2014 17:24 15,4 C 12,8 C 76 % 1002,0 hPa 0,0 l/m 0 min 0 min 55 W/m 23,0 km/h (4 Bft)
07.10.2014 17:26 15,4 C 12,8 C 76 % 1002,0 hPa 0,0 l/m 0 min 0 min 47 W/m 20,9 km/h (4 Bft)
07.10.2014 17:28 15,3 C 12,8 C 76 % 1002,0 hPa 0,0 l/m 0 min 0 min 52 W/m 16,7 km/h (3 Bft)
07.10.2014 17:30 15,3 C 13,3 C 76 % 1002,0 hPa 0,0 l/m 0 min 0 min 55 W/m 14,6 km/h (3 Bft)
07.10.2014 17:32 15,3 C 13,3 C 76 % 1002,0 hPa 0,0 l/m 0 min 0 min 57 W/m 29,3 km/h (5 Bft)
07.10.2014 17:34 15,2 C 13,3 C 76 % 1002,1 hPa 0,0 l/m 0 min 0 min 54 W/m 25,1 km/h (4 Bft)
07.10.2014 17:36 15,2 C 13,3 C 76 % 1002,1 hPa 0,0 l/m 0 min 0 min 51 W/m 20,9 km/h (4 Bft)
07.10.2014 17:38 15,1 C 13,3 C 76 % 1002,0 hPa 0,0 l/m 0 min 0 min 39 W/m 25,1 km/h (4 Bft)
07.10.2014 17:40 15,1 C 13,3 C 76 % 1002,1 hPa 0,0 l/m 0 min 0 min 42 W/m 20,9 km/h (4 Bft)
07.10.2014 17:42 15,1 C 13,3 C 76 % 1002,0 hPa 0,0 l/m 0 min 0 min 50 W/m 18,8 km/h (3 Bft)
07.10.2014 17:44 15,1 C 13,3 C 76 % 1002,1 hPa 0,0 l/m 0 min 0 min 52 W/m 14,6 km/h (3 Bft)
07.10.2014 17:46 15,1 C 13,3 C 76 % 1002,2 hPa 0,0 l/m 0 min 0 min 42 W/m 16,7 km/h (3 Bft)
07.10.2014 17:48 15,0 C 13,3 C 76 % 1002,2 hPa 0,0 l/m 0 min 0 min 33 W/m 12,6 km/h (3 Bft)
07.10.2014 17:50 15,0 C 13,3 C 76 % 1002,1 hPa 0,0 l/m 0 min 0 min 33 W/m 20,9 km/h (4 Bft)
07.10.2014 17:52 15,0 C 13,3 C 76 % 1002,2 hPa 0,0 l/m 0 min 0 min 33 W/m 16,7 km/h (3 Bft)
07.10.2014 17:54 15,0 C 13,3 C 76 % 1002,3 hPa 0,0 l/m 0 min 0 min 30 W/m 14,6 km/h (3 Bft)
07.10.2014 17:56 14,9 C 13,3 C 76 % 1002,3 hPa 0,0 l/m 0 min 0 min 33 W/m 12,6 km/h (3 Bft)
07.10.2014 17:58 14,9 C 13,3 C 76 % 1002,2 hPa 0,0 l/m 0 min 0 min 38 W/m 14,6 km/h (3 Bft)
07.10.2014 17:59 14,9 C 13,3 C 76 % 1002,2 hPa 0,0 l/m 0 min 0 min 33 W/m 8,4 km/h (2 Bft)
07.10.2014 18:00 14,9 C 13,3 C 77 % 1002,3 hPa 0,0 l/m 0 min 0 min 32 W/m 18,8 km/h (3 Bft)
07.10.2014 18:02 14,9 C 13,3 C 77 % 1002,4 hPa 0,0 l/m 0 min 0 min 34 W/m 12,6 km/h (3 Bft)
07.10.2014 18:04 14,9 C 13,3 C 77 % 1002,3 hPa 0,0 l/m 0 min 0 min 39 W/m 16,7 km/h (3 Bft)
07.10.2014 18:06 14,9 C 13,3 C 77 % 1002,3 hPa 0,0 l/m 0 min 0 min 40 W/m 14,6 km/h (3 Bft)
07.10.2014 18:08 14,9 C 13,3 C 77 % 1002,4 hPa 0,0 l/m 0 min 0 min 39 W/m 18,8 km/h (3 Bft)
07.10.2014 18:10 14,9 C 13,3 C 77 % 1002,3 hPa 0,0 l/m 0 min 0 min 39 W/m 14,6 km/h (3 Bft)
07.10.2014 18:12 14,9 C 13,3 C 77 % 1002,3 hPa 0,0 l/m 0 min 0 min 35 W/m 14,6 km/h (3 Bft)
07.10.2014 18:14 14,9 C 13,3 C 77 % 1002,3 hPa 0,0 l/m 0 min 0 min 29 W/m 16,7 km/h (3 Bft)
07.10.2014 18:16 14,8 C 13,3 C 77 % 1002,5 hPa 0,0 l/m 0 min 0 min 25 W/m 25,1 km/h (4 Bft)
07.10.2014 18:18 14,8 C 13,3 C 77 % 1002,5 hPa 0,0 l/m 0 min 0 min 19 W/m 14,6 km/h (3 Bft)
07.10.2014 18:20 14,8 C 13,3 C 78 % 1002,4 hPa 0,0 l/m 0 min 0 min 15 W/m 18,8 km/h (3 Bft)
07.10.2014 18:22 14,8 C 12,8 C 78 % 1002,4 hPa 0,0 l/m 0 min 0 min 12 W/m 12,6 km/h (3 Bft)
07.10.2014 18:24 14,8 C 12,8 C 78 % 1002,4 hPa 0,0 l/m 0 min 0 min 11 W/m 12,6 km/h (3 Bft)
07.10.2014 18:26 14,8 C 12,8 C 78 % 1002,7 hPa 0,0 l/m 0 min 0 min 8 W/m 12,6 km/h (3 Bft)
07.10.2014 18:28 14,8 C 12,8 C 78 % 1002,6 hPa 0,0 l/m 0 min 0 min 7 W/m 18,8 km/h (3 Bft)
07.10.2014 18:30 14,7 C 12,8 C 78 % 1002,7 hPa 0,0 l/m 0 min 0 min 7 W/m 12,6 km/h (3 Bft)
07.10.2014 18:32 14,7 C 12,8 C 78 % 1002,7 hPa 0,0 l/m 0 min 0 min 7 W/m 16,7 km/h (3 Bft)
07.10.2014 18:34 14,7 C 12,8 C 78 % 1002,5 hPa 0,0 l/m 0 min 0 min 5 W/m 18,8 km/h (3 Bft)
07.10.2014 18:36 14,7 C 12,8 C 78 % 1002,5 hPa 0,0 l/m 0 min 0 min 5 W/m 18,8 km/h (3 Bft)
07.10.2014 18:38 14,6 C 12,8 C 78 % 1002,6 hPa 0,0 l/m 0 min 0 min 2 W/m 23,0 km/h (4 Bft)
07.10.2014 18:40 14,6 C 12,8 C 78 % 1002,7 hPa 0,0 l/m 0 min 2 min 0 W/m 27,2 km/h (4 Bft)
07.10.2014 18:42 14,6 C 12,8 C 79 % 1002,8 hPa 0,0 l/m 0 min 2 min 0 W/m 16,7 km/h (3 Bft)
07.10.2014 18:44 14,6 C 12,8 C 79 % 1002,8 hPa 0,0 l/m 0 min 0 min 5 W/m 14,6 km/h (3 Bft)
07.10.2014 18:46 14,5 C 12,8 C 79 % 1002,8 hPa 0,0 l/m 0 min 0 min 5 W/m 14,6 km/h (3 Bft)
07.10.2014 18:48 14,5 C 12,8 C 79 % 1002,9 hPa 0,0 l/m 0 min 0 min 5 W/m 8,4 km/h (2 Bft)
07.10.2014 18:50 14,5 C 12,8 C 80 % 1003,3 hPa 0,0 l/m 0 min 0 min 6 W/m 14,6 km/h (3 Bft)
07.10.2014 18:52 14,4 C 12,8 C 80 % 1003,3 hPa 0,0 l/m 0 min 0 min 7 W/m 20,9 km/h (4 Bft)
07.10.2014 18:54 14,4 C 12,8 C 79 % 1003,1 hPa 0,0 l/m 0 min 0 min 7 W/m 12,6 km/h (3 Bft)
07.10.2014 18:56 14,3 C 12,2 C 79 % 1003,0 hPa 0,0 l/m 0 min 0 min 4 W/m 16,7 km/h (3 Bft)
07.10.2014 18:58 14,3 C 12,2 C 79 % 1003,1 hPa 0,0 l/m 0 min 0 min 0 W/m 25,1 km/h (4 Bft)
07.10.2014 19:00 14,2 C 12,2 C 78 % 1003,1 hPa 0,0 l/m 0 min 2 min 0 W/m 14,6 km/h (3 Bft)
07.10.2014 19:02 14,2 C 11,7 C 78 % 1003,1 hPa 0,0 l/m 0 min 2 min 0 W/m 16,7 km/h (3 Bft)
07.10.2014 19:04 14,2 C 11,1 C 79 % 1003,3 hPa 0,0 l/m 0 min 2 min 0 W/m 29,3 km/h (5 Bft)
07.10.2014 19:06 14,2 C 11,1 C 79 % 1003,3 hPa 0,2 l/m 0 min 2 min 0 W/m 10,5 km/h (2 Bft)
07.10.2014 19:08 14,1 C 10,6 C 80 % 1003,3 hPa 0,0 l/m 0 min 2 min 0 W/m 16,7 km/h (3 Bft)
07.10.2014 19:10 14,0 C 10,6 C 80 % 1003,5 hPa 0,0 l/m 0 min 2 min 0 W/m 16,7 km/h (3 Bft)
07.10.2014 19:12 13,9 C 10,6 C 81 % 1003,4 hPa 0,0 l/m 0 min 2 min 0 W/m 18,8 km/h (3 Bft)
07.10.2014 19:14 13,9 C 10,6 C 81 % 1003,3 hPa 0,0 l/m 0 min 2 min 0 W/m 12,6 km/h (3 Bft)
07.10.2014 19:16 13,7 C 10,6 C 82 % 1003,7 hPa 0,0 l/m 0 min 2 min 0 W/m 14,6 km/h (3 Bft)
07.10.2014 19:18 13,6 C 10,0 C 83 % 1003,7 hPa 0,4 l/m 0 min 2 min 0 W/m 27,2 km/h (4 Bft)
07.10.2014 19:20 13,5 C 10,0 C 83 % 1003,7 hPa 0,6 l/m 0 min 2 min 0 W/m 18,8 km/h (3 Bft)
07.10.2014 19:22 13,4 C 10,0 C 84 % 1003,5 hPa 0,2 l/m 0 min 2 min 0 W/m 20,9 km/h (4 Bft)
07.10.2014 19:24 13,3 C 10,0 C 84 % 1003,4 hPa 0,0 l/m 0 min 2 min 0 W/m 25,1 km/h (4 Bft)
07.10.2014 19:26 13,2 C 10,0 C 85 % 1003,6 hPa 0,0 l/m 0 min 2 min 0 W/m 14,6 km/h (3 Bft)
07.10.2014 19:28 13,2 C 10,0 C 85 % 1003,5 hPa 0,0 l/m 0 min 2 min 0 W/m 8,4 km/h (2 Bft)
07.10.2014 19:30 13,1 C 10,0 C 85 % 1003,4 hPa 0,0 l/m 0 min 2 min 0 W/m 6,3 km/h (2 Bft)
07.10.2014 19:32 13,1 C 10,0 C 86 % 1003,3 hPa 0,0 l/m 0 min 2 min 0 W/m 10,5 km/h (2 Bft)
07.10.2014 19:34 13,0 C 10,0 C 86 % 1003,4 hPa 0,0 l/m 0 min 0 min 0 W/m 14,6 km/h (3 Bft)
07.10.2014 19:36 12,9 C 10,0 C 86 % 1003,4 hPa 0,0 l/m 0 min 0 min 0 W/m 14,6 km/h (3 Bft)
07.10.2014 19:38 12,8 C 10,0 C 86 % 1003,4 hPa 0,0 l/m 0 min 0 min 0 W/m 8,4 km/h (2 Bft)
07.10.2014 19:40 12,8 C 10,0 C 87 % 1003,3 hPa 0,0 l/m 0 min 0 min 0 W/m 8,4 km/h (2 Bft)
07.10.2014 19:42 12,7 C 10,0 C 87 % 1003,4 hPa 0,0 l/m 0 min 0 min 0 W/m 8,4 km/h (2 Bft)
07.10.2014 19:44 12,7 C 10,0 C 87 % 1003,4 hPa 0,0 l/m 0 min 0 min 0 W/m 8,4 km/h (2 Bft)
07.10.2014 19:46 12,6 C 10,0 C 87 % 1003,5 hPa 0,0 l/m 0 min 0 min 0 W/m 8,4 km/h (2 Bft)
07.10.2014 19:48 12,6 C 10,0 C 87 % 1003,5 hPa 0,0 l/m 0 min 0 min 0 W/m 6,3 km/h (2 Bft)
07.10.2014 19:50 12,5 C 10,0 C 88 % 1003,5 hPa 0,0 l/m 0 min 0 min 0 W/m 4,2 km/h (1 Bft)
07.10.2014 19:52 12,4 C 10,0 C 88 % 1003,5 hPa 0,0 l/m 0 min 0 min 0 W/m 4,2 km/h (1 Bft)
07.10.2014 19:54 12,4 C 10,0 C 88 % 1003,4 hPa 0,0 l/m 0 min 0 min 0 W/m 8,4 km/h (2 Bft)
07.10.2014 19:56 12,3 C 10,0 C 88 % 1003,5 hPa 0,0 l/m 0 min 0 min 0 W/m 8,4 km/h (2 Bft)
07.10.2014 19:58 12,3 C 10,0 C 88 % 1003,6 hPa 0,0 l/m 0 min 0 min 0 W/m 8,4 km/h (2 Bft)
07.10.2014 20:00 12,2 C 10,0 C 88 % 1003,6 hPa 0,0 l/m 0 min 0 min 0 W/m 6,3 km/h (2 Bft)
07.10.2014 20:02 12,2 C 9,4 C 88 % 1003,6 hPa 0,0 l/m 0 min 0 min 0 W/m 6,3 km/h (2 Bft)
07.10.2014 20:04 12,2 C 9,4 C 89 % 1003,7 hPa 0,0 l/m 0 min 0 min 0 W/m 2,1 km/h (1 Bft)
07.10.2014 20:06 12,1 C 9,4 C 89 % 1003,7 hPa 0,0 l/m 0 min 0 min 0 W/m 4,2 km/h (1 Bft)
07.10.2014 20:08 12,1 C 9,4 C 89 % 1003,8 hPa 0,0 l/m 0 min 0 min 0 W/m 4,2 km/h (1 Bft)
07.10.2014 20:10 12,0 C 9,4 C 89 % 1003,8 hPa 0,0 l/m 0 min 0 min 0 W/m 6,3 km/h (2 Bft)
07.10.2014 20:12 11,9 C 9,4 C 89 % 1003,9 hPa 0,0 l/m 0 min 0 min 0 W/m 8,4 km/h (2 Bft)
07.10.2014 20:14 11,9 C 9,4 C 89 % 1003,9 hPa 0,0 l/m 0 min 0 min 0 W/m 6,3 km/h (2 Bft)
07.10.2014 20:16 11,9 C 9,4 C 89 % 1003,9 hPa 0,0 l/m 0 min 0 min 0 W/m 10,5 km/h (2 Bft)
07.10.2014 20:18 11,8 C 9,4 C 89 % 1003,9 hPa 0,0 l/m 0 min 0 min 0 W/m 8,4 km/h (2 Bft)
07.10.2014 20:20 11,8 C 9,4 C 89 % 1004,0 hPa 0,0 l/m 0 min 0 min 0 W/m 6,3 km/h (2 Bft)
07.10.2014 20:22 11,8 C 9,4 C 90 % 1003,9 hPa 0,0 l/m 0 min 0 min 0 W/m 4,2 km/h (1 Bft)
07.10.2014 20:24 11,7 C 9,4 C 90 % 1004,0 hPa 0,0 l/m 0 min 0 min 0 W/m 8,4 km/h (2 Bft)
07.10.2014 20:26 11,7 C 9,4 C 90 % 1004,0 hPa 0,0 l/m 0 min 0 min 0 W/m 6,3 km/h (2 Bft)
07.10.2014 20:28 11,7 C 9,4 C 90 % 1004,0 hPa 0,0 l/m 0 min 0 min 0 W/m 6,3 km/h (2 Bft)
07.10.2014 20:30 11,6 C 9,4 C 90 % 1004,1 hPa 0,0 l/m 0 min 2 min 0 W/m 4,2 km/h (1 Bft)
07.10.2014 20:32 11,6 C 9,4 C 90 % 1004,2 hPa 0,0 l/m 0 min 0 min 0 W/m 10,5 km/h (2 Bft)
07.10.2014 20:34 11,6 C 9,4 C 90 % 1004,2 hPa 0,0 l/m 0 min 0 min 0 W/m 10,5 km/h (2 Bft)
07.10.2014 20:36 11,6 C 9,4 C 90 % 1004,2 hPa 0,0 l/m 0 min 0 min 0 W/m 16,7 km/h (3 Bft)
07.10.2014 20:38 11,5 C 9,4 C 91 % 1004,3 hPa 0,0 l/m 0 min 0 min 0 W/m 14,6 km/h (3 Bft)
07.10.2014 20:40 11,5 C 9,4 C 90 % 1004,1 hPa 0,0 l/m 0 min 0 min 0 W/m 8,4 km/h (2 Bft)
07.10.2014 20:42 11,4 C 9,4 C 91 % 1004,2 hPa 0,0 l/m 0 min 0 min 0 W/m 6,3 km/h (2 Bft)
07.10.2014 20:44 11,4 C 9,4 C 91 % 1004,3 hPa 0,0 l/m 0 min 0 min 0 W/m 10,5 km/h (2 Bft)
07.10.2014 20:46 11,4 C 9,4 C 91 % 1004,3 hPa 0,2 l/m 0 min 0 min 0 W/m 8,4 km/h (2 Bft)
07.10.2014 20:48 11,4 C 9,4 C 91 % 1004,4 hPa 0,0 l/m 0 min 0 min 0 W/m 14,6 km/h (3 Bft)
07.10.2014 20:50 11,3 C 9,4 C 91 % 1004,4 hPa 0,0 l/m 0 min 0 min 0 W/m 18,8 km/h (3 Bft)
07.10.2014 20:52 11,3 C 9,4 C 91 % 1004,5 hPa 0,0 l/m 0 min 0 min 0 W/m 12,6 km/h (3 Bft)
07.10.2014 20:54 11,3 C 10,0 C 91 % 1004,6 hPa 0,0 l/m 0 min 0 min 0 W/m 14,6 km/h (3 Bft)
07.10.2014 20:56 11,3 C 10,0 C 92 % 1004,6 hPa 0,0 l/m 0 min 0 min 0 W/m 14,6 km/h (3 Bft)
07.10.2014 20:58 11,3 C 10,0 C 92 % 1004,6 hPa 0,0 l/m 0 min 0 min 0 W/m 20,9 km/h (4 Bft)
07.10.2014 21:00 11,3 C 10,0 C 92 % 1004,6 hPa 0,0 l/m 0 min 0 min 0 W/m 10,5 km/h (2 Bft)
07.10.2014 21:02 11,3 C 10,0 C 92 % 1004,7 hPa 0,0 l/m 0 min 0 min 0 W/m 12,6 km/h (3 Bft)
07.10.2014 21:04 11,3 C 10,0 C 92 % 1004,7 hPa 0,0 l/m 0 min 0 min 0 W/m 12,6 km/h (3 Bft)
07.10.2014 21:06 11,3 C 10,0 C 92 % 1004,8 hPa 0,0 l/m 0 min 0 min 0 W/m 10,5 km/h (2 Bft)
07.10.2014 21:08 11,3 C 10,0 C 92 % 1004,9 hPa 0,0 l/m 0 min 0 min 0 W/m 12,6 km/h (3 Bft)
07.10.2014 21:10 11,3 C 10,0 C 92 % 1004,9 hPa 0,0 l/m 0 min 0 min 0 W/m 16,7 km/h (3 Bft)
07.10.2014 21:12 11,3 C 10,0 C 92 % 1005,0 hPa 0,0 l/m 0 min 0 min 0 W/m 10,5 km/h (2 Bft)
07.10.2014 21:14 11,3 C 10,0 C 92 % 1004,9 hPa 0,0 l/m 0 min 0 min 0 W/m 6,3 km/h (2 Bft)
07.10.2014 21:16 11,3 C 10,0 C 92 % 1005,0 hPa 0,0 l/m 0 min 0 min 0 W/m 10,5 km/h (2 Bft)
07.10.2014 21:18 11,3 C 10,0 C 92 % 1005,1 hPa 0,0 l/m 0 min 0 min 0 W/m 8,4 km/h (2 Bft)
07.10.2014 21:20 11,3 C 10,0 C 92 % 1005,1 hPa 0,0 l/m 0 min 0 min 0 W/m 12,6 km/h (3 Bft)
07.10.2014 21:22 11,3 C 10,0 C 92 % 1005,1 hPa 0,0 l/m 0 min 0 min 0 W/m 12,6 km/h (3 Bft)
07.10.2014 21:24 11,3 C 10,0 C 92 % 1005,1 hPa 0,0 l/m 0 min 0 min 0 W/m 14,6 km/h (3 Bft)
07.10.2014 21:26 11,3 C 10,0 C 92 % 1005,1 hPa 0,0 l/m 0 min 0 min 0 W/m 14,6 km/h (3 Bft)
07.10.2014 21:28 11,3 C 10,0 C 92 % 1005,2 hPa 0,0 l/m 0 min 0 min 0 W/m 12,6 km/h (3 Bft)
07.10.2014 21:30 11,3 C 10,0 C 92 % 1005,2 hPa 0,0 l/m 0 min 0 min 0 W/m 10,5 km/h (2 Bft)
07.10.2014 21:32 11,3 C 10,0 C 92 % 1005,6 hPa 0,0 l/m 0 min 0 min 0 W/m 14,6 km/h (3 Bft)
07.10.2014 21:34 11,4 C 10,0 C 92 % 1005,7 hPa 0,2 l/m 0 min 2 min 0 W/m 14,6 km/h (3 Bft)
07.10.2014 21:36 11,4 C 10,0 C 92 % 1005,6 hPa 0,0 l/m 0 min 2 min 0 W/m 12,6 km/h (3 Bft)
07.10.2014 21:38 11,4 C 10,0 C 92 % 1005,6 hPa 0,2 l/m 0 min 2 min 0 W/m 6,3 km/h (2 Bft)
07.10.2014 21:40 11,4 C 10,0 C 92 % 1005,7 hPa 0,0 l/m 0 min 2 min 0 W/m 10,5 km/h (2 Bft)
07.10.2014 21:42 11,4 C 10,0 C 93 % 1005,8 hPa 0,0 l/m 0 min 2 min 0 W/m 12,6 km/h (3 Bft)
07.10.2014 21:44 11,4 C 10,0 C 93 % 1005,8 hPa 0,6 l/m 0 min 2 min 0 W/m 20,9 km/h (4 Bft)
07.10.2014 21:46 11,4 C 9,4 C 93 % 1005,9 hPa 0,2 l/m 0 min 2 min 0 W/m 37,7 km/h (5 Bft)
07.10.2014 21:48 11,4 C 9,4 C 92 % 1005,8 hPa 0,0 l/m 0 min 2 min 0 W/m 27,2 km/h (4 Bft)
07.10.2014 21:50 11,3 C 9,4 C 92 % 1005,9 hPa 0,2 l/m 0 min 2 min 0 W/m 31,4 km/h (5 Bft)
07.10.2014 21:52 11,3 C 9,4 C 92 % 1006,0 hPa 0,0 l/m 0 min 2 min 0 W/m 39,7 km/h (6 Bft)
07.10.2014 21:54 11,2 C 9,4 C 92 % 1006,1 hPa 0,0 l/m 0 min 2 min 0 W/m 23,0 km/h (4 Bft)
07.10.2014 21:56 11,1 C 8,9 C 92 % 1006,2 hPa 0,0 l/m 0 min 2 min 0 W/m 37,7 km/h (5 Bft)
07.10.2014 21:58 11,1 C 8,9 C 92 % 1006,4 hPa 0,0 l/m 0 min 2 min 0 W/m 27,2 km/h (4 Bft)
07.10.2014 22:00 11,0 C 8,9 C 92 % 1006,4 hPa 0,0 l/m 0 min 2 min 0 W/m 29,3 km/h (5 Bft)
07.10.2014 22:02 10,9 C 8,9 C 92 % 1006,5 hPa 0,2 l/m 0 min 2 min 0 W/m 33,5 km/h (5 Bft)
07.10.2014 22:04 10,9 C 8,9 C 92 % 1006,6 hPa 0,0 l/m 0 min 2 min 0 W/m 25,1 km/h (4 Bft)
07.10.2014 22:06 10,9 C 8,9 C 92 % 1006,6 hPa 0,0 l/m 0 min 2 min 0 W/m 25,1 km/h (4 Bft)
07.10.2014 22:08 10,8 C 8,9 C 92 % 1006,6 hPa 0,0 l/m 0 min 2 min 0 W/m 25,1 km/h (4 Bft)
07.10.2014 22:10 10,8 C 8,9 C 92 % 1006,4 hPa 0,2 l/m 0 min 2 min 0 W/m 25,1 km/h (4 Bft)
07.10.2014 22:12 10,8 C 8,9 C 92 % 1006,3 hPa 0,0 l/m 0 min 2 min 0 W/m 16,7 km/h (3 Bft)
07.10.2014 22:14 10,7 C 8,9 C 92 % 1006,2 hPa 0,0 l/m 0 min 2 min 0 W/m 18,8 km/h (3 Bft)
07.10.2014 22:16 10,7 C 8,9 C 92 % 1006,3 hPa 0,0 l/m 0 min 2 min 0 W/m 12,6 km/h (3 Bft)
07.10.2014 22:18 10,7 C 8,9 C 92 % 1006,3 hPa 0,0 l/m 0 min 2 min 0 W/m 14,6 km/h (3 Bft)
07.10.2014 22:20 10,7 C 8,9 C 92 % 1006,3 hPa 0,0 l/m 0 min 0 min 0 W/m 18,8 km/h (3 Bft)
07.10.2014 22:22 10,7 C 8,9 C 92 % 1006,4 hPa 0,0 l/m 0 min 0 min 0 W/m 16,7 km/h (3 Bft)
07.10.2014 22:24 10,6 C 8,9 C 92 % 1006,4 hPa 0,0 l/m 0 min 0 min 0 W/m 23,0 km/h (4 Bft)
07.10.2014 22:26 10,6 C 8,9 C 92 % 1006,5 hPa 0,0 l/m 0 min 0 min 0 W/m 14,6 km/h (3 Bft)
07.10.2014 22:28 10,6 C 8,9 C 93 % 1006,6 hPa 0,0 l/m 0 min 0 min 0 W/m 18,8 km/h (3 Bft)
07.10.2014 22:30 10,6 C 8,9 C 93 % 1006,6 hPa 0,0 l/m 0 min 0 min 0 W/m 14,6 km/h (3 Bft)
07.10.2014 22:32 10,5 C 8,9 C 93 % 1006,5 hPa 0,0 l/m 0 min 0 min 0 W/m 12,6 km/h (3 Bft)
07.10.2014 22:34 10,5 C 8,9 C 93 % 1006,5 hPa 0,0 l/m 0 min 0 min 0 W/m 10,5 km/h (2 Bft)
07.10.2014 22:36 10,4 C 8,9 C 93 % 1006,7 hPa 0,0 l/m 0 min 0 min 0 W/m 16,7 km/h (3 Bft)
07.10.2014 22:38 10,4 C 8,9 C 93 % 1006,6 hPa 0,0 l/m 0 min 0 min 0 W/m 12,6 km/h (3 Bft)
07.10.2014 22:40 10,4 C 8,9 C 93 % 1006,4 hPa 0,2 l/m 0 min 2 min 0 W/m 20,9 km/h (4 Bft)
07.10.2014 22:42 10,4 C 8,9 C 93 % 1006,4 hPa 0,0 l/m 0 min 2 min 0 W/m 23,0 km/h (4 Bft)
07.10.2014 22:44 10,3 C 8,9 C 93 % 1006,4 hPa 0,0 l/m 0 min 2 min 0 W/m 25,1 km/h (4 Bft)
07.10.2014 22:46 10,3 C 8,9 C 93 % 1006,4 hPa 0,0 l/m 0 min 2 min 0 W/m 8,4 km/h (2 Bft)
07.10.2014 22:48 10,3 C 8,9 C 93 % 1006,5 hPa 0,0 l/m 0 min 0 min 0 W/m 18,8 km/h (3 Bft)
07.10.2014 22:50 10,3 C 8,9 C 93 % 1006,7 hPa 0,0 l/m 0 min 0 min 0 W/m 16,7 km/h (3 Bft)
07.10.2014 22:52 10,3 C 8,9 C 93 % 1006,5 hPa 0,0 l/m 0 min 0 min 0 W/m 14,6 km/h (3 Bft)
07.10.2014 22:54 10,3 C 8,9 C 93 % 1006,5 hPa 0,0 l/m 0 min 0 min 0 W/m 14,6 km/h (3 Bft)
07.10.2014 22:56 10,2 C 8,9 C 93 % 1006,6 hPa 0,0 l/m 0 min 0 min 0 W/m 20,9 km/h (4 Bft)
07.10.2014 22:58 10,2 C 8,3 C 93 % 1006,5 hPa 0,0 l/m 0 min 0 min 0 W/m 23,0 km/h (4 Bft)
07.10.2014 23:00 10,2 C 8,3 C 94 % 1006,5 hPa 0,0 l/m 0 min 0 min 0 W/m 25,1 km/h (4 Bft)
07.10.2014 23:02 10,1 C 8,3 C 94 % 1006,5 hPa 0,0 l/m 0 min 0 min 0 W/m 14,6 km/h (3 Bft)
07.10.2014 23:04 10,1 C 8,3 C 93 % 1006,6 hPa 0,0 l/m 0 min 0 min 0 W/m 16,7 km/h (3 Bft)
07.10.2014 23:06 10,1 C 8,3 C 93 % 1006,6 hPa 0,0 l/m 0 min 0 min 0 W/m 23,0 km/h (4 Bft)
07.10.2014 23:08 10,1 C 8,3 C 93 % 1006,6 hPa 0,0 l/m 0 min 0 min 0 W/m 18,8 km/h (3 Bft)
07.10.2014 23:10 10,1 C 8,3 C 93 % 1006,6 hPa 0,0 l/m 0 min 0 min 0 W/m 16,7 km/h (3 Bft)
07.10.2014 23:12 10,0 C 8,3 C 93 % 1006,7 hPa 0,0 l/m 0 min 0 min 0 W/m 20,9 km/h (4 Bft)
07.10.2014 23:14 10,0 C 8,3 C 93 % 1006,6 hPa 0,0 l/m 0 min 0 min 0 W/m 12,6 km/h (3 Bft)
07.10.2014 23:16 10,0 C 8,3 C 93 % 1006,7 hPa 0,0 l/m 0 min 0 min 0 W/m 12,6 km/h (3 Bft)
07.10.2014 23:18 9,9 C 8,3 C 93 % 1006,8 hPa 0,0 l/m 0 min 0 min 0 W/m 18,8 km/h (3 Bft)
07.10.2014 23:20 9,9 C 8,3 C 93 % 1006,8 hPa 0,0 l/m 0 min 0 min 0 W/m 12,6 km/h (3 Bft)
07.10.2014 23:22 9,9 C 8,3 C 93 % 1006,8 hPa 0,0 l/m 0 min 0 min 0 W/m 10,5 km/h (2 Bft)
07.10.2014 23:24 9,9 C 8,3 C 94 % 1006,9 hPa 0,0 l/m 0 min 0 min 0 W/m 18,8 km/h (3 Bft)
07.10.2014 23:26 9,9 C 8,3 C 94 % 1006,9 hPa 0,0 l/m 0 min 0 min 0 W/m 18,8 km/h (3 Bft)
07.10.2014 23:28 9,9 C 8,3 C 94 % 1007,0 hPa 0,0 l/m 0 min 0 min 0 W/m 16,7 km/h (3 Bft)
07.10.2014 23:30 9,9 C 8,3 C 94 % 1007,0 hPa 0,0 l/m 0 min 0 min 0 W/m 14,6 km/h (3 Bft)
07.10.2014 23:32 9,8 C 8,3 C 94 % 1007,0 hPa 0,0 l/m 0 min 0 min 0 W/m 10,5 km/h (2 Bft)
07.10.2014 23:34 9,8 C 8,3 C 94 % 1007,1 hPa 0,0 l/m 0 min 0 min 0 W/m 16,7 km/h (3 Bft)
07.10.2014 23:36 9,8 C 8,3 C 94 % 1007,1 hPa 0,0 l/m 0 min 0 min 0 W/m 14,6 km/h (3 Bft)
07.10.2014 23:38 9,8 C 8,3 C 94 % 1007,1 hPa 0,0 l/m 0 min 0 min 0 W/m 12,6 km/h (3 Bft)
07.10.2014 23:40 9,8 C 8,3 C 94 % 1007,2 hPa 0,0 l/m 0 min 0 min 0 W/m 16,7 km/h (3 Bft)
07.10.2014 23:42 9,8 C 8,3 C 94 % 1007,2 hPa 0,0 l/m 0 min 0 min 0 W/m 20,9 km/h (4 Bft)
07.10.2014 23:44 9,8 C 8,3 C 94 % 1007,2 hPa 0,0 l/m 0 min 0 min 0 W/m 18,8 km/h (3 Bft)
07.10.2014 23:46 9,8 C 8,3 C 94 % 1007,2 hPa 0,0 l/m 0 min 0 min 0 W/m 10,5 km/h (2 Bft)
07.10.2014 23:48 9,7 C 8,3 C 94 % 1007,3 hPa 0,0 l/m 0 min 0 min 0 W/m 10,5 km/h (2 Bft)
07.10.2014 23:50 9,7 C 8,3 C 94 % 1007,3 hPa 0,0 l/m 0 min 0 min 0 W/m 8,4 km/h (2 Bft)
07.10.2014 23:52 9,7 C 8,3 C 94 % 1007,3 hPa 0,0 l/m 0 min 0 min 0 W/m 14,6 km/h (3 Bft)
07.10.2014 23:54 9,7 C 8,3 C 94 % 1007,4 hPa 0,0 l/m 0 min 0 min 0 W/m 12,6 km/h (3 Bft)
07.10.2014 23:56 9,7 C 8,3 C 94 % 1007,4 hPa 0,0 l/m 0 min 0 min 0 W/m 14,6 km/h (3 Bft)
07.10.2014 23:58 9,7 C 8,3 C 94 % 1007,4 hPa 0,0 l/m 0 min 0 min 0 W/m 14,6 km/h (3 Bft)
_ Min-Zeit 23:48 22:58 14:42 11:42 - - - - 20:04
Minimum _ 9,7 C 8,3 C 68 % 998,8 hPa - - - - 2,1 km/h (1 Bft)
_ Max-Zeit 12:38 12:26 10:58 23:54 08:56 10:36 01:00 12:24 14:40
Maximum _ 17,4 C 15,6 C 99 % 1007,4 hPa 1,2 l/m 2 min 2 min 703 W/m 64,4 km/h
SW (8 Bft)
Durchschnitt _ 13,9 C 12,2 C 89 % 1002,1 hPa #17,2 l/m #4:40 h #6:20 h 187 W/m 20,3 km/h (4 Bft)
© 2014 W. Hausmann